Time,TemperatureF,DewpointF,PressureIn,WindDirection,WindDirectionDegrees,WindSpeedMPH,WindSpeedGustMPH,Humidity,HourlyPrecipIn,Conditions,Clouds,dailyrainin,SoftwareType,DateUTC
2013-09-02 00:02:00,65.5,46.4,25.05,SSE,158,0.0,0.0,50,0.00,,,0.00,meteohub,2013-09-02 07:02:00,
2013-09-02 00:04:00,65.5,46.4,25.05,SSE,158,0.0,0.0,50,0.00,,,0.00,meteohub,2013-09-02 07:04:00,
2013-09-02 00:05:00,65.5,46.4,25.05,SSE,158,0.0,0.0,50,0.00,,,0.00,meteohub,2013-09-02 07:05:00,
2013-09-02 00:07:00,65.3,46.2,25.05,SSE,158,0.0,0.0,50,0.00,,,0.00,meteohub,2013-09-02 07:07:00,
2013-09-02 00:09:00,65.1,46.0,25.05,SSE,158,0.0,0.0,50,0.00,,,0.00,meteohub,2013-09-02 07:09:00,
2013-09-02 00:10:00,65.1,46.0,25.05,SSE,158,0.0,0.0,50,0.00,,,0.00,meteohub,2013-09-02 07:10:00,
2013-09-02 00:12:00,65.1,46.0,25.05,SSE,158,0.0,0.0,50,0.00,,,0.00,meteohub,2013-09-02 07:12:00,
2013-09-02 00:17:00,64.8,45.7,25.05,SSE,158,0.0,0.0,50,0.00,,,0.00,meteohub,2013-09-02 07:17:00,
2013-09-02 00:22:00,64.6,45.5,25.05,SSE,158,0.0,0.0,50,0.00,,,0.00,meteohub,2013-09-02 07:22:00,
2013-09-02 00:23:00,64.6,45.5,25.05,SSE,158,0.0,0.0,50,0.00,,,0.00,meteohub,2013-09-02 07:23:00,
2013-09-02 00:24:00,64.6,45.5,25.05,SSE,158,0.0,0.0,50,0.00,,,0.00,meteohub,2013-09-02 07:24:00,
2013-09-02 00:29:00,64.2,45.1,25.05,SSE,158,0.0,0.0,50,0.00,,,0.00,meteohub,2013-09-02 07:29:00,
2013-09-02 00:30:00,64.0,45.0,25.05,SSE,158,0.0,0.0,50,0.00,,,0.00,meteohub,2013-09-02 07:30:00,
2013-09-02 00:32:00,64.0,45.0,25.05,SSE,158,0.0,0.0,50,0.00,,,0.00,meteohub,2013-09-02 07:32:00,
2013-09-02 00:34:00,63.7,44.8,25.05,SSE,158,0.0,0.0,50,0.00,,,0.00,meteohub,2013-09-02 07:34:00,
2013-09-02 00:35:00,63.7,44.8,25.05,SSE,158,0.0,0.0,50,0.00,,,0.00,meteohub,2013-09-02 07:35:00,
2013-09-02 00:37:00,63.3,45.0,25.06,SSE,158,0.0,0.0,51,0.00,,,0.00,meteohub,2013-09-02 07:37:00,
2013-09-02 00:42:00,62.8,44.4,25.06,SSE,158,0.0,0.0,51,0.00,,,0.00,meteohub,2013-09-02 07:42:00,
2013-09-02 00:43:00,62.8,44.4,25.05,SSE,158,0.0,0.0,51,0.00,,,0.00,meteohub,2013-09-02 07:43:00,
2013-09-02 00:44:00,62.6,44.2,25.05,SSE,158,0.0,0.0,51,0.00,,,0.00,meteohub,2013-09-02 07:44:00,
2013-09-02 00:47:00,62.4,44.1,25.05,SSE,158,0.0,0.0,51,0.00,,,0.00,meteohub,2013-09-02 07:47:00,
2013-09-02 00:48:00,62.2,43.9,25.05,SSE,158,0.0,0.0,51,0.00,,,0.00,meteohub,2013-09-02 07:48:00,
2013-09-02 00:50:00,62.1,44.2,25.05,SSE,158,0.0,0.0,52,0.00,,,0.00,meteohub,2013-09-02 07:50:00,
2013-09-02 00:54:00,61.7,44.4,25.05,SSE,158,0.0,0.0,53,0.00,,,0.00,meteohub,2013-09-02 07:54:00,
2013-09-02 00:55:00,61.5,44.2,25.05,SSE,158,0.0,0.0,53,0.00,,,0.00,meteohub,2013-09-02 07:55:00,
2013-09-02 00:57:00,61.3,44.1,25.05,SSE,158,0.0,0.0,53,0.00,,,0.00,meteohub,2013-09-02 07:57:00,
2013-09-02 00:58:00,61.2,43.9,25.05,SSE,158,0.0,0.0,53,0.00,,,0.00,meteohub,2013-09-02 07:58:00,
2013-09-02 01:00:00,61.0,43.7,25.05,SSE,158,0.0,0.0,53,0.00,,,0.00,meteohub,2013-09-02 08:00:00,
2013-09-02 01:01:00,61.0,43.7,25.05,SSE,158,0.0,0.0,53,0.00,,,0.00,meteohub,2013-09-02 08:01:00,
2013-09-02 01:03:00,61.0,43.7,25.05,SSE,158,0.0,0.0,53,0.00,,,0.00,meteohub,2013-09-02 08:03:00,
2013-09-02 01:04:00,60.6,43.3,25.05,SSE,158,0.0,0.0,53,0.00,,,0.00,meteohub,2013-09-02 08:04:00,
2013-09-02 01:05:00,60.6,43.3,25.06,SSE,158,0.0,0.0,53,0.00,,,0.00,meteohub,2013-09-02 08:05:00,
2013-09-02 01:07:00,60.6,43.9,25.05,SSE,158,0.0,0.0,54,0.00,,,0.00,meteohub,2013-09-02 08:07:00,
2013-09-02 01:08:00,60.6,43.9,25.05,SSE,158,0.0,0.0,54,0.00,,,0.00,meteohub,2013-09-02 08:08:00,
2013-09-02 01:09:00,60.4,43.7,25.05,SSE,158,0.0,0.0,54,0.00,,,0.00,meteohub,2013-09-02 08:09:00,
2013-09-02 01:11:00,60.4,43.7,25.05,SSE,158,0.0,0.0,54,0.00,,,0.00,meteohub,2013-09-02 08:11:00,
2013-09-02 01:12:00,60.4,43.7,25.06,SSE,158,0.0,0.0,54,0.00,,,0.00,meteohub,2013-09-02 08:12:00,
2013-09-02 01:13:00,60.4,43.7,25.05,SSE,158,0.0,0.0,54,0.00,,,0.00,meteohub,2013-09-02 08:13:00,
2013-09-02 01:14:00,60.4,43.7,25.05,SSE,158,0.0,0.0,54,0.00,,,0.00,meteohub,2013-09-02 08:14:00,
2013-09-02 01:17:00,60.3,43.5,25.05,SSE,158,0.0,0.0,54,0.00,,,0.00,meteohub,2013-09-02 08:17:00,
2013-09-02 01:18:00,60.1,43.3,25.05,SSE,158,0.0,0.0,54,0.00,,,0.00,meteohub,2013-09-02 08:18:00,
2013-09-02 01:20:00,60.1,43.3,25.05,SSE,158,0.0,0.0,54,0.00,,,0.00,meteohub,2013-09-02 08:20:00,
2013-09-02 01:22:00,59.9,43.2,25.05,SSE,158,0.0,0.0,54,0.00,,,0.00,meteohub,2013-09-02 08:22:00,
2013-09-02 01:23:00,59.9,43.2,25.05,SSE,158,0.0,0.0,54,0.00,,,0.00,meteohub,2013-09-02 08:23:00,
2013-09-02 01:24:00,59.9,43.2,25.05,SSE,158,0.0,0.0,54,0.00,,,0.00,meteohub,2013-09-02 08:24:00,
2013-09-02 01:25:00,59.7,43.0,25.05,SSE,158,0.0,0.0,54,0.00,,,0.00,meteohub,2013-09-02 08:25:00,
2013-09-02 01:28:00,59.7,43.5,25.05,SSE,158,0.0,0.0,55,0.00,,,0.00,meteohub,2013-09-02 08:28:00,
2013-09-02 01:32:00,59.5,43.3,25.05,SSE,158,0.0,0.0,55,0.00,,,0.00,meteohub,2013-09-02 08:32:00,
2013-09-02 01:33:00,59.5,43.3,25.05,SSE,158,0.0,0.0,55,0.00,,,0.00,meteohub,2013-09-02 08:33:00,
2013-09-02 01:35:00,59.7,43.5,25.05,SSE,158,0.0,0.0,55,0.00,,,0.00,meteohub,2013-09-02 08:35:00,
2013-09-02 01:36:00,59.7,43.5,25.05,SSE,158,0.0,0.0,55,0.00,,,0.00,meteohub,2013-09-02 08:36:00,
2013-09-02 01:37:00,59.7,43.5,25.05,SSE,158,0.0,0.0,55,0.00,,,0.00,meteohub,2013-09-02 08:37:00,
2013-09-02 01:40:00,59.7,43.5,25.05,SSE,158,0.0,0.0,55,0.00,,,0.00,meteohub,2013-09-02 08:40:00,
2013-09-02 01:42:00,59.7,43.5,25.05,SSE,158,0.0,0.0,55,0.00,,,0.00,meteohub,2013-09-02 08:42:00,
2013-09-02 01:45:00,59.9,43.7,25.05,SSE,158,0.0,0.0,55,0.00,,,0.00,meteohub,2013-09-02 08:45:00,
2013-09-02 01:47:00,59.9,43.7,25.05,SSE,158,0.0,0.0,55,0.00,,,0.00,meteohub,2013-09-02 08:47:00,
2013-09-02 01:49:00,59.9,43.7,25.05,SSE,158,0.0,0.0,55,0.00,,,0.00,meteohub,2013-09-02 08:49:00,
2013-09-02 01:50:00,59.9,43.7,25.05,SSE,158,0.0,0.0,55,0.00,,,0.00,meteohub,2013-09-02 08:50:00,
2013-09-02 01:52:00,59.7,43.5,25.05,SSE,158,0.0,0.0,55,0.00,,,0.00,meteohub,2013-09-02 08:52:00,
2013-09-02 01:54:00,59.7,43.5,25.05,SSE,158,0.0,0.0,55,0.00,,,0.00,meteohub,2013-09-02 08:54:00,
2013-09-02 01:57:00,59.7,43.5,25.05,SSE,158,0.0,0.0,55,0.00,,,0.00,meteohub,2013-09-02 08:57:00,
2013-09-02 01:58:00,59.7,43.5,25.05,SSE,158,0.0,0.0,55,0.00,,,0.00,meteohub,2013-09-02 08:58:00,
2013-09-02 01:59:00,59.5,43.3,25.05,SSE,158,0.0,0.0,55,0.00,,,0.00,meteohub,2013-09-02 08:59:00,
2013-09-02 02:00:00,59.5,43.3,25.05,SSE,158,0.0,0.0,55,0.00,,,0.00,meteohub,2013-09-02 09:00:00,
2013-09-02 02:02:00,59.5,43.3,25.05,SSE,158,0.0,0.0,55,0.00,,,0.00,meteohub,2013-09-02 09:02:00,
2013-09-02 02:06:00,59.5,43.9,25.05,SSE,158,0.0,0.0,56,0.00,,,0.00,meteohub,2013-09-02 09:06:00,
2013-09-02 02:07:00,59.5,43.9,25.05,SSE,158,0.0,0.0,56,0.00,,,0.00,meteohub,2013-09-02 09:07:00,
2013-09-02 02:11:00,59.5,43.9,25.05,SSE,158,0.0,0.0,56,0.00,,,0.00,meteohub,2013-09-02 09:11:00,
2013-09-02 02:12:00,59.5,43.9,25.05,SSE,158,0.0,0.0,56,0.00,,,0.00,meteohub,2013-09-02 09:12:00,
2013-09-02 02:15:00,59.7,44.4,25.05,SSE,158,0.0,0.0,57,0.00,,,0.00,meteohub,2013-09-02 09:15:00,
2013-09-02 02:16:00,59.7,44.1,25.05,SSE,158,0.0,0.0,56,0.00,,,0.00,meteohub,2013-09-02 09:16:00,
2013-09-02 02:17:00,59.7,44.1,25.05,SSE,158,0.0,0.0,56,0.00,,,0.00,meteohub,2013-09-02 09:17:00,
2013-09-02 02:19:00,60.1,44.8,25.05,SSE,158,0.0,0.0,57,0.00,,,0.00,meteohub,2013-09-02 09:19:00,
2013-09-02 02:22:00,60.1,44.4,25.05,SSE,158,0.0,0.0,56,0.00,,,0.00,meteohub,2013-09-02 09:22:00,
2013-09-02 02:25:00,60.1,44.4,25.05,SSE,158,0.0,0.0,56,0.00,,,0.00,meteohub,2013-09-02 09:25:00,
2013-09-02 02:27:00,60.1,44.4,25.05,SSE,158,0.0,0.0,56,0.00,,,0.00,meteohub,2013-09-02 09:27:00,
2013-09-02 02:28:00,60.1,44.4,25.05,SSE,158,0.0,0.0,56,0.00,,,0.00,meteohub,2013-09-02 09:28:00,
2013-09-02 02:31:00,59.9,44.2,25.05,SSE,158,0.0,0.0,56,0.00,,,0.00,meteohub,2013-09-02 09:31:00,
2013-09-02 02:33:00,59.7,44.1,25.05,SSE,158,0.0,0.0,56,0.00,,,0.00,meteohub,2013-09-02 09:33:00,
2013-09-02 02:34:00,59.7,44.1,25.05,SSE,158,0.0,0.0,56,0.00,,,0.00,meteohub,2013-09-02 09:34:00,
2013-09-02 02:35:00,59.7,44.1,25.05,SSE,158,0.0,0.0,56,0.00,,,0.00,meteohub,2013-09-02 09:35:00,
2013-09-02 02:37:00,59.5,43.9,25.05,SSE,158,0.0,0.0,56,0.00,,,0.00,meteohub,2013-09-02 09:37:00,
2013-09-02 02:38:00,59.5,43.9,25.05,SSE,158,0.0,0.0,56,0.00,,,0.00,meteohub,2013-09-02 09:38:00,
2013-09-02 02:39:00,59.5,43.9,25.05,SSE,158,0.0,0.0,56,0.00,,,0.00,meteohub,2013-09-02 09:39:00,
2013-09-02 02:41:00,59.5,43.9,25.05,SSE,158,0.0,0.0,56,0.00,,,0.00,meteohub,2013-09-02 09:41:00,
2013-09-02 02:42:00,59.5,43.9,25.05,SSE,158,0.0,0.0,56,0.00,,,0.00,meteohub,2013-09-02 09:42:00,
2013-09-02 02:43:00,59.5,44.2,25.05,SSE,158,0.0,0.0,57,0.00,,,0.00,meteohub,2013-09-02 09:43:00,
2013-09-02 02:44:00,59.5,44.2,25.05,SSE,158,0.0,0.0,57,0.00,,,0.00,meteohub,2013-09-02 09:44:00,
2013-09-02 02:46:00,59.5,43.9,25.04,SSE,158,0.0,0.0,56,0.00,,,0.00,meteohub,2013-09-02 09:46:00,
2013-09-02 02:50:00,59.5,43.9,25.04,SSE,158,0.0,0.0,56,0.00,,,0.00,meteohub,2013-09-02 09:50:00,
2013-09-02 02:51:00,59.5,43.9,25.04,SSE,158,0.0,0.0,56,0.00,,,0.00,meteohub,2013-09-02 09:51:00,
2013-09-02 02:56:00,59.7,44.4,25.04,SSE,158,0.0,0.0,57,0.00,,,0.00,meteohub,2013-09-02 09:56:00,
2013-09-02 02:57:00,59.9,44.6,25.04,SSE,158,0.0,0.0,57,0.00,,,0.00,meteohub,2013-09-02 09:57:00,
2013-09-02 03:00:00,60.1,44.8,25.04,SSE,158,0.0,0.0,57,0.00,,,0.00,meteohub,2013-09-02 10:00:00,
2013-09-02 03:02:00,60.1,44.8,25.04,SSE,158,0.0,0.0,57,0.00,,,0.00,meteohub,2013-09-02 10:02:00,
2013-09-02 03:04:00,60.1,44.4,25.04,SSE,158,0.0,0.0,56,0.00,,,0.00,meteohub,2013-09-02 10:04:00,
2013-09-02 03:05:00,60.3,44.4,25.04,SSE,158,0.0,0.0,56,0.00,,,0.00,meteohub,2013-09-02 10:05:00,
2013-09-02 03:07:00,60.4,44.6,25.04,SSE,158,0.0,0.0,56,0.00,,,0.00,meteohub,2013-09-02 10:07:00,
2013-09-02 03:10:00,60.4,44.6,25.04,SSE,158,0.0,0.0,56,0.00,,,0.00,meteohub,2013-09-02 10:10:00,
2013-09-02 03:11:00,60.4,44.6,25.04,SSE,158,0.0,0.0,56,0.00,,,0.00,meteohub,2013-09-02 10:11:00,
2013-09-02 03:12:00,60.4,44.6,25.04,SSE,158,0.0,0.0,56,0.00,,,0.00,meteohub,2013-09-02 10:12:00,
2013-09-02 03:13:00,60.4,44.6,25.04,SSE,158,0.0,0.0,56,0.00,,,0.00,meteohub,2013-09-02 10:13:00,
2013-09-02 03:17:00,60.4,44.6,25.04,SSE,158,0.0,0.0,56,0.00,,,0.00,meteohub,2013-09-02 10:17:00,
2013-09-02 03:18:00,60.4,44.6,25.04,SSE,158,0.0,0.0,56,0.00,,,0.00,meteohub,2013-09-02 10:18:00,
2013-09-02 03:20:00,60.4,44.6,25.04,SSE,158,0.0,0.0,56,0.00,,,0.00,meteohub,2013-09-02 10:20:00,
2013-09-02 03:22:00,60.6,44.8,25.04,SSE,158,0.0,0.0,56,0.00,,,0.00,meteohub,2013-09-02 10:22:00,
2013-09-02 03:24:00,60.6,44.8,25.04,SSE,158,0.0,0.0,56,0.00,,,0.00,meteohub,2013-09-02 10:24:00,
2013-09-02 03:26:00,60.6,44.8,25.04,SSE,158,0.0,0.0,56,0.00,,,0.00,meteohub,2013-09-02 10:26:00,
2013-09-02 03:29:00,60.6,44.8,25.04,SSE,158,0.0,0.0,56,0.00,,,0.00,meteohub,2013-09-02 10:29:00,
2013-09-02 03:30:00,60.6,44.8,25.04,SSE,158,0.0,0.0,56,0.00,,,0.00,meteohub,2013-09-02 10:30:00,
2013-09-02 03:32:00,60.6,44.8,25.04,SSE,158,0.0,0.0,56,0.00,,,0.00,meteohub,2013-09-02 10:32:00,
2013-09-02 03:35:00,60.6,44.8,25.04,SSE,158,0.0,0.0,56,0.00,,,0.00,meteohub,2013-09-02 10:35:00,
2013-09-02 03:37:00,60.6,44.8,25.04,SSE,158,0.0,0.0,56,0.00,,,0.00,meteohub,2013-09-02 10:37:00,
2013-09-02 03:38:00,60.6,44.8,25.04,SSE,158,0.0,0.0,56,0.00,,,0.00,meteohub,2013-09-02 10:38:00,
2013-09-02 03:39:00,60.6,44.8,25.04,SSE,158,0.0,0.0,56,0.00,,,0.00,meteohub,2013-09-02 10:39:00,
2013-09-02 03:40:00,60.6,44.8,25.04,SSE,158,0.0,0.0,56,0.00,,,0.00,meteohub,2013-09-02 10:40:00,
2013-09-02 03:41:00,60.6,44.8,25.04,SSE,158,0.0,0.0,56,0.00,,,0.00,meteohub,2013-09-02 10:41:00,
2013-09-02 03:43:00,60.6,44.8,25.04,SSE,158,0.0,0.0,56,0.00,,,0.00,meteohub,2013-09-02 10:43:00,
2013-09-02 03:44:00,60.6,44.8,25.04,SSE,158,0.0,0.0,56,0.00,,,0.00,meteohub,2013-09-02 10:44:00,
2013-09-02 03:45:00,60.6,44.8,25.04,SSE,158,0.0,0.0,56,0.00,,,0.00,meteohub,2013-09-02 10:45:00,
2013-09-02 03:46:00,60.6,44.8,25.04,SSE,158,0.0,0.0,56,0.00,,,0.00,meteohub,2013-09-02 10:46:00,
2013-09-02 03:47:00,60.6,44.8,25.04,SSE,158,0.0,0.0,56,0.00,,,0.00,meteohub,2013-09-02 10:47:00,
2013-09-02 03:49:00,60.4,44.6,25.04,SSE,158,0.0,0.0,56,0.00,,,0.00,meteohub,2013-09-02 10:49:00,
2013-09-02 03:50:00,60.4,44.6,25.04,SSE,158,0.0,0.0,56,0.00,,,0.00,meteohub,2013-09-02 10:50:00,
2013-09-02 03:51:00,60.4,44.6,25.04,SSE,158,0.0,0.0,56,0.00,,,0.00,meteohub,2013-09-02 10:51:00,
2013-09-02 03:56:00,60.4,44.6,25.04,SSE,158,0.0,0.0,56,0.00,,,0.00,meteohub,2013-09-02 10:56:00,
2013-09-02 03:57:00,60.4,44.6,25.04,SSE,158,0.0,0.0,56,0.00,,,0.00,meteohub,2013-09-02 10:57:00,
2013-09-02 03:58:00,60.4,44.6,25.04,SSE,158,0.0,0.0,56,0.00,,,0.00,meteohub,2013-09-02 10:58:00,
2013-09-02 04:02:00,60.4,44.6,25.04,SSE,158,0.0,0.0,56,0.00,,,0.00,meteohub,2013-09-02 11:02:00,
2013-09-02 04:03:00,60.4,44.6,25.04,SSE,158,0.0,0.0,56,0.00,,,0.00,meteohub,2013-09-02 11:03:00,
2013-09-02 04:04:00,60.4,44.6,25.04,SSE,158,0.0,0.0,56,0.00,,,0.00,meteohub,2013-09-02 11:04:00,
2013-09-02 04:07:00,60.4,44.6,25.04,SSE,158,0.0,0.0,56,0.00,,,0.00,meteohub,2013-09-02 11:07:00,
2013-09-02 04:09:00,60.4,44.6,25.04,SSE,158,0.0,0.0,56,0.00,,,0.00,meteohub,2013-09-02 11:09:00,
2013-09-02 04:10:00,60.4,44.6,25.04,SSE,158,0.0,0.0,56,0.00,,,0.00,meteohub,2013-09-02 11:10:00,
2013-09-02 04:14:00,60.4,45.1,25.04,SSE,158,0.0,0.0,57,0.00,,,0.00,meteohub,2013-09-02 11:14:00,
2013-09-02 04:17:00,60.4,45.1,25.04,SSE,158,0.0,0.0,57,0.00,,,0.00,meteohub,2013-09-02 11:17:00,
2013-09-02 04:19:00,60.6,44.8,25.04,SSE,158,0.0,0.0,56,0.00,,,0.00,meteohub,2013-09-02 11:19:00,
2013-09-02 04:21:00,60.4,45.1,25.04,SSE,158,0.0,0.0,57,0.00,,,0.00,meteohub,2013-09-02 11:21:00,
2013-09-02 04:22:00,60.4,45.1,25.04,SSE,158,0.0,0.0,57,0.00,,,0.00,meteohub,2013-09-02 11:22:00,
2013-09-02 04:23:00,60.4,44.6,25.04,SSE,158,0.0,0.0,56,0.00,,,0.00,meteohub,2013-09-02 11:23:00,
2013-09-02 04:25:00,60.4,44.6,25.04,SSE,158,0.0,0.0,56,0.00,,,0.00,meteohub,2013-09-02 11:25:00,
2013-09-02 04:27:00,60.4,44.6,25.04,SSE,158,0.0,0.0,56,0.00,,,0.00,meteohub,2013-09-02 11:27:00,
2013-09-02 04:29:00,60.4,44.6,25.04,SSE,158,0.0,0.0,56,0.00,,,0.00,meteohub,2013-09-02 11:29:00,
2013-09-02 04:30:00,60.4,44.6,25.04,SSE,158,0.0,0.0,56,0.00,,,0.00,meteohub,2013-09-02 11:30:00,
2013-09-02 04:31:00,60.4,44.6,25.04,SSE,158,0.0,0.0,56,0.00,,,0.00,meteohub,2013-09-02 11:31:00,
2013-09-02 04:32:00,60.4,44.6,25.04,SSE,158,0.0,0.0,56,0.00,,,0.00,meteohub,2013-09-02 11:32:00,
2013-09-02 04:35:00,60.1,44.4,25.04,SSE,158,0.0,0.0,56,0.00,,,0.00,meteohub,2013-09-02 11:35:00,
2013-09-02 04:38:00,59.9,44.2,25.03,SSE,158,0.0,0.0,56,0.00,,,0.00,meteohub,2013-09-02 11:38:00,
2013-09-02 04:39:00,59.7,44.4,25.03,SSE,158,0.0,0.0,57,0.00,,,0.00,meteohub,2013-09-02 11:39:00,
2013-09-02 04:40:00,59.7,44.4,25.04,SSE,158,0.0,0.0,57,0.00,,,0.00,meteohub,2013-09-02 11:40:00,
2013-09-02 04:41:00,59.7,44.4,25.04,SSE,158,0.0,0.0,57,0.00,,,0.00,meteohub,2013-09-02 11:41:00,
2013-09-02 04:43:00,59.5,44.2,25.04,SSE,158,0.0,0.0,57,0.00,,,0.00,meteohub,2013-09-02 11:43:00,
2013-09-02 04:46:00,59.5,44.2,25.04,SSE,158,0.0,0.0,57,0.00,,,0.00,meteohub,2013-09-02 11:46:00,
2013-09-02 04:48:00,59.5,44.2,25.04,SSE,158,0.0,0.0,57,0.00,,,0.00,meteohub,2013-09-02 11:48:00,
2013-09-02 04:49:00,59.5,44.2,25.04,SSE,158,0.0,0.0,57,0.00,,,0.00,meteohub,2013-09-02 11:49:00,
2013-09-02 04:50:00,59.4,44.1,25.04,SSE,158,0.0,0.0,57,0.00,,,0.00,meteohub,2013-09-02 11:50:00,
2013-09-02 04:56:00,59.2,43.9,25.04,SSE,158,0.0,0.0,57,0.00,,,0.00,meteohub,2013-09-02 11:56:00,
2013-09-02 04:57:00,59.2,43.9,25.04,SSE,158,0.0,0.0,57,0.00,,,0.00,meteohub,2013-09-02 11:57:00,
2013-09-02 05:01:00,58.8,43.7,25.05,SSE,158,0.0,0.0,57,0.00,,,0.00,meteohub,2013-09-02 12:01:00,
2013-09-02 05:02:00,58.8,43.7,25.04,SSE,158,0.0,0.0,57,0.00,,,0.00,meteohub,2013-09-02 12:02:00,
2013-09-02 05:06:00,58.8,43.7,25.04,SSE,158,0.0,0.0,57,0.00,,,0.00,meteohub,2013-09-02 12:06:00,
2013-09-02 05:07:00,58.8,43.7,25.04,SSE,158,0.0,0.0,57,0.00,,,0.00,meteohub,2013-09-02 12:07:00,
2013-09-02 05:12:00,58.6,43.9,25.04,SSE,158,0.0,0.0,58,0.00,,,0.00,meteohub,2013-09-02 12:12:00,
2013-09-02 05:13:00,58.6,43.9,25.04,SSE,158,0.0,0.0,58,0.00,,,0.00,meteohub,2013-09-02 12:13:00,
2013-09-02 05:15:00,58.5,43.7,25.04,SSE,158,0.0,0.0,58,0.00,,,0.00,meteohub,2013-09-02 12:15:00,
2013-09-02 05:17:00,58.5,43.7,25.04,SSE,158,0.0,0.0,58,0.00,,,0.00,meteohub,2013-09-02 12:17:00,
2013-09-02 05:18:00,58.6,43.9,25.04,SSE,158,0.0,0.0,58,0.00,,,0.00,meteohub,2013-09-02 12:18:00,
2013-09-02 05:21:00,58.6,43.9,25.04,SSE,158,0.0,0.0,58,0.00,,,0.00,meteohub,2013-09-02 12:21:00,
2013-09-02 05:22:00,58.5,43.7,25.04,SSE,158,0.0,0.0,58,0.00,,,0.00,meteohub,2013-09-02 12:22:00,
2013-09-02 05:23:00,58.5,43.7,25.04,SSE,158,0.0,0.0,58,0.00,,,0.00,meteohub,2013-09-02 12:23:00,
2013-09-02 05:27:00,58.5,43.7,25.05,SSE,158,0.0,0.0,58,0.00,,,0.00,meteohub,2013-09-02 12:27:00,
2013-09-02 05:30:00,58.6,43.9,25.05,SSE,158,0.0,0.0,58,0.00,,,0.00,meteohub,2013-09-02 12:30:00,
2013-09-02 05:31:00,58.6,44.4,25.05,SSE,158,0.0,0.0,59,0.00,,,0.00,meteohub,2013-09-02 12:31:00,
2013-09-02 05:35:00,58.6,44.4,25.05,SSE,158,0.0,0.0,59,0.00,,,0.00,meteohub,2013-09-02 12:35:00,
2013-09-02 05:36:00,58.6,44.4,25.05,SSE,158,0.0,0.0,59,0.00,,,0.00,meteohub,2013-09-02 12:36:00,
2013-09-02 05:37:00,58.6,44.4,25.05,SSE,158,0.0,0.0,59,0.00,,,0.00,meteohub,2013-09-02 12:37:00,
2013-09-02 05:39:00,58.8,44.6,25.05,SSE,158,0.0,0.0,59,0.00,,,0.00,meteohub,2013-09-02 12:39:00,
2013-09-02 05:40:00,58.8,44.6,25.05,SSE,158,0.0,0.0,59,0.00,,,0.00,meteohub,2013-09-02 12:40:00,
2013-09-02 05:42:00,58.8,44.6,25.05,SSE,158,0.0,0.0,59,0.00,,,0.00,meteohub,2013-09-02 12:42:00,
2013-09-02 05:45:00,58.8,44.6,25.05,SSE,158,0.0,0.0,59,0.00,,,0.00,meteohub,2013-09-02 12:45:00,
2013-09-02 05:46:00,58.8,44.6,25.05,SSE,158,0.0,0.0,59,0.00,,,0.00,meteohub,2013-09-02 12:46:00,
2013-09-02 05:47:00,58.8,44.6,25.05,SSE,158,0.0,0.0,59,0.00,,,0.00,meteohub,2013-09-02 12:47:00,
2013-09-02 05:50:00,58.8,44.6,25.05,SSE,158,0.0,0.0,59,0.00,,,0.00,meteohub,2013-09-02 12:50:00,
2013-09-02 05:51:00,58.8,44.6,25.05,SSE,158,0.0,0.0,59,0.00,,,0.00,meteohub,2013-09-02 12:51:00,
2013-09-02 05:52:00,58.8,44.6,25.05,SSE,158,0.0,0.0,59,0.00,,,0.00,meteohub,2013-09-02 12:52:00,
2013-09-02 05:53:00,59.2,44.8,25.05,SSE,158,0.0,0.0,59,0.00,,,0.00,meteohub,2013-09-02 12:53:00,
2013-09-02 05:54:00,59.2,44.8,25.05,SSE,158,0.0,0.0,59,0.00,,,0.00,meteohub,2013-09-02 12:54:00,
2013-09-02 05:58:00,59.4,45.0,25.05,SSE,158,0.0,0.0,59,0.00,,,0.00,meteohub,2013-09-02 12:58:00,
2013-09-02 05:59:00,59.4,45.0,25.05,SSE,158,0.0,0.0,59,0.00,,,0.00,meteohub,2013-09-02 12:59:00,
2013-09-02 06:00:00,59.4,45.0,25.05,SSE,158,0.0,0.0,59,0.00,,,0.00,meteohub,2013-09-02 13:00:00,
2013-09-02 06:02:00,59.5,45.1,25.05,SSE,158,0.0,0.0,59,0.00,,,0.00,meteohub,2013-09-02 13:02:00,
2013-09-02 06:04:00,59.5,45.1,25.05,SSE,158,0.0,0.0,59,0.00,,,0.00,meteohub,2013-09-02 13:04:00,
2013-09-02 06:05:00,59.5,45.1,25.05,SSE,158,0.0,0.0,59,0.00,,,0.00,meteohub,2013-09-02 13:05:00,
2013-09-02 06:06:00,59.5,45.1,25.05,SSE,158,0.0,0.0,59,0.00,,,0.00,meteohub,2013-09-02 13:06:00,
2013-09-02 06:07:00,59.5,45.1,25.05,SSE,158,0.0,0.0,59,0.00,,,0.00,meteohub,2013-09-02 13:07:00,
2013-09-02 06:10:00,59.5,45.1,25.05,SSE,158,0.0,0.0,59,0.00,,,0.00,meteohub,2013-09-02 13:10:00,
2013-09-02 06:11:00,59.5,45.1,25.05,SSE,158,0.0,0.0,59,0.00,,,0.00,meteohub,2013-09-02 13:11:00,
2013-09-02 06:12:00,59.5,45.1,25.05,SSE,158,0.0,0.0,59,0.00,,,0.00,meteohub,2013-09-02 13:12:00,
2013-09-02 06:16:00,59.5,45.1,25.05,SSE,158,0.0,0.0,59,0.00,,,0.00,meteohub,2013-09-02 13:16:00,
2013-09-02 06:17:00,59.5,45.1,25.05,SSE,158,0.0,0.0,59,0.00,,,0.00,meteohub,2013-09-02 13:17:00,
2013-09-02 06:18:00,59.5,45.1,25.05,SSE,158,0.0,0.0,59,0.00,,,0.00,meteohub,2013-09-02 13:18:00,
2013-09-02 06:22:00,59.5,45.1,25.05,SSE,158,0.0,0.0,59,0.00,,,0.00,meteohub,2013-09-02 13:22:00,
2013-09-02 06:25:00,59.4,45.0,25.05,SSE,158,0.0,0.0,59,0.00,,,0.00,meteohub,2013-09-02 13:25:00,
2013-09-02 06:27:00,59.4,45.0,25.05,SSE,158,0.0,0.0,59,0.00,,,0.00,meteohub,2013-09-02 13:27:00,
2013-09-02 06:28:00,59.2,44.8,25.05,SSE,158,0.0,0.0,59,0.00,,,0.00,meteohub,2013-09-02 13:28:00,
2013-09-02 06:29:00,59.0,44.2,25.05,SSE,158,0.0,0.0,58,0.00,,,0.00,meteohub,2013-09-02 13:29:00,
2013-09-02 06:30:00,58.8,44.1,25.05,SSE,158,0.0,0.0,58,0.00,,,0.00,meteohub,2013-09-02 13:30:00,
2013-09-02 06:32:00,58.8,44.1,25.05,SSE,158,0.0,0.0,58,0.00,,,0.00,meteohub,2013-09-02 13:32:00,
2013-09-02 06:35:00,58.8,44.6,25.05,SSE,158,0.0,0.0,59,0.00,,,0.00,meteohub,2013-09-02 13:35:00,
2013-09-02 06:36:00,58.8,44.6,25.05,SSE,158,0.0,0.0,59,0.00,,,0.00,meteohub,2013-09-02 13:36:00,
2013-09-02 06:37:00,58.8,44.6,25.05,SSE,158,0.0,0.0,59,0.00,,,0.00,meteohub,2013-09-02 13:37:00,
2013-09-02 06:38:00,58.8,44.6,25.05,SSE,158,0.0,0.0,59,0.00,,,0.00,meteohub,2013-09-02 13:38:00,
2013-09-02 06:42:00,58.6,44.4,25.05,SSE,158,0.0,0.0,59,0.00,,,0.00,meteohub,2013-09-02 13:42:00,
2013-09-02 06:46:00,58.1,43.9,25.05,SSE,158,0.0,0.0,59,0.00,,,0.00,meteohub,2013-09-02 13:46:00,
2013-09-02 06:47:00,58.1,43.9,25.05,SSE,158,0.0,0.0,59,0.00,,,0.00,meteohub,2013-09-02 13:47:00,
2013-09-02 06:49:00,57.9,43.7,25.05,SSE,158,0.0,0.0,59,0.00,,,0.00,meteohub,2013-09-02 13:49:00,
2013-09-02 06:51:00,57.9,43.7,25.05,SSE,158,0.0,0.0,59,0.00,,,0.00,meteohub,2013-09-02 13:51:00,
2013-09-02 06:52:00,57.9,43.7,25.05,SSE,158,0.0,0.0,59,0.00,,,0.00,meteohub,2013-09-02 13:52:00,
2013-09-02 06:57:00,57.4,43.2,25.05,SSE,158,0.0,0.0,59,0.00,,,0.00,meteohub,2013-09-02 13:57:00,
2013-09-02 06:59:00,57.4,43.2,25.05,SSE,158,0.0,0.0,59,0.00,,,0.00,meteohub,2013-09-02 13:59:00,
2013-09-02 07:01:00,57.2,43.0,25.05,SSE,158,0.0,0.0,59,0.00,,,0.00,meteohub,2013-09-02 14:01:00,
2013-09-02 07:02:00,57.0,43.3,25.05,SSE,158,0.0,0.0,60,0.00,,,0.00,meteohub,2013-09-02 14:02:00,
2013-09-02 07:04:00,57.0,43.3,25.05,SSE,158,0.0,0.0,60,0.00,,,0.00,meteohub,2013-09-02 14:04:00,
2013-09-02 07:05:00,57.0,43.3,25.05,SSE,158,0.0,0.0,60,0.00,,,0.00,meteohub,2013-09-02 14:05:00,
2013-09-02 07:06:00,57.0,43.3,25.05,SSE,158,0.0,0.0,60,0.00,,,0.00,meteohub,2013-09-02 14:06:00,
2013-09-02 07:08:00,57.0,43.3,25.05,SSE,158,0.0,0.0,60,0.00,,,0.00,meteohub,2013-09-02 14:08:00,
2013-09-02 07:11:00,56.8,43.2,25.05,SSE,158,0.0,0.0,60,0.00,,,0.00,meteohub,2013-09-02 14:11:00,
2013-09-02 07:14:00,56.8,43.2,25.05,SSE,158,0.0,0.0,60,0.00,,,0.00,meteohub,2013-09-02 14:14:00,
2013-09-02 07:15:00,56.8,43.5,25.05,SSE,158,0.0,0.0,61,0.00,,,0.00,meteohub,2013-09-02 14:15:00,
2013-09-02 07:16:00,56.8,43.5,25.05,SSE,158,0.0,0.0,61,0.00,,,0.00,meteohub,2013-09-02 14:16:00,
2013-09-02 07:19:00,56.5,43.2,25.05,SSE,158,0.0,0.0,61,0.00,,,0.00,meteohub,2013-09-02 14:19:00,
2013-09-02 07:21:00,56.5,43.2,25.05,SSE,158,0.0,0.0,61,0.00,,,0.00,meteohub,2013-09-02 14:21:00,
2013-09-02 07:22:00,56.3,43.0,25.06,SSE,158,0.0,0.0,61,0.00,,,0.00,meteohub,2013-09-02 14:22:00,
2013-09-02 07:23:00,56.1,42.8,25.06,SSE,158,0.0,0.0,61,0.00,,,0.00,meteohub,2013-09-02 14:23:00,
2013-09-02 07:25:00,56.1,42.8,25.05,SSE,158,0.0,0.0,61,0.00,,,0.00,meteohub,2013-09-02 14:25:00,
2013-09-02 07:27:00,55.9,42.6,25.06,SSE,158,0.0,0.0,61,0.00,,,0.00,meteohub,2013-09-02 14:27:00,
2013-09-02 07:29:00,55.9,42.6,25.05,SSE,158,0.0,0.0,61,0.00,,,0.00,meteohub,2013-09-02 14:29:00,
2013-09-02 07:30:00,55.9,42.6,25.05,SSE,158,0.0,0.0,61,0.00,,,0.00,meteohub,2013-09-02 14:30:00,
2013-09-02 07:32:00,55.8,42.4,25.06,SSE,158,0.0,0.0,61,0.00,,,0.00,meteohub,2013-09-02 14:32:00,
2013-09-02 07:34:00,55.8,42.4,25.05,SSE,158,0.0,0.0,61,0.00,,,0.00,meteohub,2013-09-02 14:34:00,
2013-09-02 07:37:00,55.6,42.8,25.06,SSE,158,0.0,0.0,62,0.00,,,0.00,meteohub,2013-09-02 14:37:00,
2013-09-02 07:38:00,55.8,43.0,25.05,SSE,158,0.0,0.0,62,0.00,,,0.00,meteohub,2013-09-02 14:38:00,
2013-09-02 07:40:00,55.6,42.8,25.05,SSE,158,0.0,0.0,62,0.00,,,0.00,meteohub,2013-09-02 14:40:00,
2013-09-02 07:42:00,55.8,43.0,25.06,SSE,158,0.0,0.0,62,0.00,,,0.00,meteohub,2013-09-02 14:42:00,
2013-09-02 07:43:00,55.8,43.0,25.06,SSE,158,0.0,0.0,62,0.00,,,0.00,meteohub,2013-09-02 14:43:00,
2013-09-02 07:44:00,55.8,43.0,25.06,SSE,158,0.0,0.0,62,0.00,,,0.00,meteohub,2013-09-02 14:44:00,
2013-09-02 07:47:00,55.8,43.0,25.06,SSE,158,0.0,0.0,62,0.00,,,0.00,meteohub,2013-09-02 14:47:00,
2013-09-02 07:48:00,55.6,42.8,25.06,SSE,158,0.0,0.0,62,0.00,,,0.00,meteohub,2013-09-02 14:48:00,
2013-09-02 07:50:00,55.6,42.8,25.06,SSE,158,0.0,0.0,62,0.00,,,0.00,meteohub,2013-09-02 14:50:00,
2013-09-02 07:52:00,55.8,43.0,25.06,SSE,158,0.0,0.0,62,0.00,,,0.00,meteohub,2013-09-02 14:52:00,
2013-09-02 07:55:00,55.8,43.3,25.06,SSE,158,0.0,0.0,63,0.00,,,0.00,meteohub,2013-09-02 14:55:00,
2013-09-02 07:56:00,55.8,43.3,25.06,SSE,158,0.0,0.0,63,0.00,,,0.00,meteohub,2013-09-02 14:56:00,
2013-09-02 07:59:00,55.9,43.5,25.06,SSE,158,0.0,0.0,63,0.00,,,0.00,meteohub,2013-09-02 14:59:00,
2013-09-02 08:00:00,55.9,43.9,25.06,SSE,158,0.0,0.0,64,0.00,,,0.00,meteohub,2013-09-02 15:00:00,
2013-09-02 08:01:00,55.9,43.9,25.06,SSE,158,0.0,0.0,64,0.00,,,0.00,meteohub,2013-09-02 15:01:00,
2013-09-02 08:04:00,56.1,44.1,25.06,SSE,158,0.0,0.0,64,0.00,,,0.00,meteohub,2013-09-02 15:04:00,
2013-09-02 08:07:00,56.5,44.4,25.06,SSE,158,0.0,0.0,64,0.00,,,0.00,meteohub,2013-09-02 15:07:00,
2013-09-02 08:09:00,56.8,44.8,25.07,SSE,158,0.0,0.0,64,0.00,,,0.00,meteohub,2013-09-02 15:09:00,
2013-09-02 08:15:00,57.4,45.3,25.07,SSE,158,0.0,0.0,64,0.00,,,0.00,meteohub,2013-09-02 15:15:00,
2013-09-02 08:18:00,57.7,45.7,25.07,SSE,158,0.0,0.0,64,0.00,,,0.00,meteohub,2013-09-02 15:18:00,
2013-09-02 08:20:00,57.9,45.9,25.07,SSE,158,0.0,0.0,64,0.00,,,0.00,meteohub,2013-09-02 15:20:00,
2013-09-02 08:22:00,58.1,46.0,25.07,SSE,158,0.0,0.0,64,0.00,,,0.00,meteohub,2013-09-02 15:22:00,
2013-09-02 08:23:00,58.3,46.2,25.07,SSE,158,0.0,0.0,64,0.00,,,0.00,meteohub,2013-09-02 15:23:00,
2013-09-02 08:27:00,58.8,46.6,25.07,SSE,158,0.0,0.0,64,0.00,,,0.00,meteohub,2013-09-02 15:27:00,
2013-09-02 08:29:00,58.8,46.2,25.07,SSE,158,0.0,0.0,63,0.00,,,0.00,meteohub,2013-09-02 15:29:00,
2013-09-02 08:30:00,58.8,46.2,25.07,SSE,158,0.0,0.0,63,0.00,,,0.00,meteohub,2013-09-02 15:30:00,
2013-09-02 08:32:00,58.8,46.2,25.07,SSE,158,0.0,0.0,63,0.00,,,0.00,meteohub,2013-09-02 15:32:00,
2013-09-02 08:35:00,59.4,46.8,25.07,SSE,158,0.0,0.0,63,0.00,,,0.00,meteohub,2013-09-02 15:35:00,
2013-09-02 08:36:00,59.5,46.9,25.07,SSE,158,0.0,0.0,63,0.00,,,0.00,meteohub,2013-09-02 15:36:00,
2013-09-02 08:37:00,59.5,46.9,25.07,SSE,158,0.0,0.0,63,0.00,,,0.00,meteohub,2013-09-02 15:37:00,
2013-09-02 08:38:00,59.7,46.8,25.07,SSE,158,0.0,0.0,62,0.00,,,0.00,meteohub,2013-09-02 15:38:00,
2013-09-02 08:41:00,60.1,46.9,25.07,SSE,158,0.0,0.0,62,0.00,,,0.00,meteohub,2013-09-02 15:41:00,
2013-09-02 08:42:00,60.1,46.6,25.07,SSE,158,0.0,0.0,61,0.00,,,0.00,meteohub,2013-09-02 15:42:00,
2013-09-02 08:44:00,60.4,46.9,25.07,SSE,158,0.0,0.0,61,0.00,,,0.00,meteohub,2013-09-02 15:44:00,
2013-09-02 08:47:00,60.6,47.1,25.07,SSE,158,0.0,0.0,61,0.00,,,0.00,meteohub,2013-09-02 15:47:00,
2013-09-02 08:48:00,60.6,46.6,25.07,SSE,158,0.0,0.0,60,0.00,,,0.00,meteohub,2013-09-02 15:48:00,
2013-09-02 08:49:00,60.6,46.6,25.07,SSE,158,0.0,0.0,60,0.00,,,0.00,meteohub,2013-09-02 15:49:00,
2013-09-02 08:51:00,61.0,46.9,25.07,SSE,158,0.0,0.0,60,0.00,,,0.00,meteohub,2013-09-02 15:51:00,
2013-09-02 08:52:00,61.2,47.1,25.07,SSE,158,0.0,0.0,60,0.00,,,0.00,meteohub,2013-09-02 15:52:00,
2013-09-02 08:54:00,61.3,46.9,25.07,SSE,158,0.0,0.0,59,0.00,,,0.00,meteohub,2013-09-02 15:54:00,
2013-09-02 08:55:00,61.3,46.9,25.07,SSE,158,0.0,0.0,59,0.00,,,0.00,meteohub,2013-09-02 15:55:00,
2013-09-02 08:56:00,61.5,47.1,25.07,SSE,158,0.0,0.0,59,0.00,,,0.00,meteohub,2013-09-02 15:56:00,
2013-09-02 08:57:00,61.5,47.1,25.07,SSE,158,0.0,0.0,59,0.00,,,0.00,meteohub,2013-09-02 15:57:00,
2013-09-02 09:00:00,61.9,46.9,25.07,SSE,158,0.0,0.0,58,0.00,,,0.00,meteohub,2013-09-02 16:00:00,
2013-09-02 09:02:00,62.1,47.1,25.07,SE,135,0.0,0.0,58,0.00,,,0.00,meteohub,2013-09-02 16:02:00,
2013-09-02 09:03:00,62.2,47.3,25.06,SE,135,0.0,0.0,58,0.00,,,0.00,meteohub,2013-09-02 16:03:00,
2013-09-02 09:05:00,62.4,46.9,25.07,SE,135,0.0,0.0,57,0.00,,,0.00,meteohub,2013-09-02 16:05:00,
2013-09-02 09:07:00,62.4,46.9,25.07,SE,135,0.0,0.0,57,0.00,,,0.00,meteohub,2013-09-02 16:07:00,
2013-09-02 09:10:00,62.8,46.9,25.07,SE,135,0.0,0.0,56,0.00,,,0.00,meteohub,2013-09-02 16:10:00,
2013-09-02 09:12:00,63.0,46.9,25.07,SE,135,0.0,0.0,56,0.00,,,0.00,meteohub,2013-09-02 16:12:00,
2013-09-02 09:13:00,63.0,46.9,25.07,SE,135,0.0,0.0,56,0.00,,,0.00,meteohub,2013-09-02 16:13:00,
2013-09-02 09:14:00,63.1,47.1,25.07,SE,135,0.0,0.0,56,0.00,,,0.00,meteohub,2013-09-02 16:14:00,
2013-09-02 09:18:00,63.5,47.1,25.07,ESE,113,0.0,0.0,55,0.00,,,0.00,meteohub,2013-09-02 16:18:00,
2013-09-02 09:20:00,63.7,47.3,25.07,SSE,158,0.0,0.0,55,0.00,,,0.00,meteohub,2013-09-02 16:20:00,
2013-09-02 09:21:00,63.7,47.3,25.07,SSE,158,0.0,0.0,55,0.00,,,0.00,meteohub,2013-09-02 16:21:00,
2013-09-02 09:22:00,63.9,47.3,25.07,SE,135,0.0,0.0,55,0.00,,,0.00,meteohub,2013-09-02 16:22:00,
2013-09-02 09:23:00,64.0,47.5,25.07,SE,135,0.0,0.0,55,0.00,,,0.00,meteohub,2013-09-02 16:23:00,
2013-09-02 09:27:00,64.2,47.3,25.07,SE,135,0.0,0.0,54,0.00,,,0.00,meteohub,2013-09-02 16:27:00,
2013-09-02 09:29:00,64.2,47.3,25.07,ESE,113,0.0,0.0,54,0.00,,,0.00,meteohub,2013-09-02 16:29:00,
2013-09-02 09:32:00,64.6,47.5,25.07,SE,135,0.0,0.0,54,0.00,,,0.00,meteohub,2013-09-02 16:32:00,
2013-09-02 09:33:00,64.6,47.5,25.07,SE,135,0.0,0.0,54,0.00,,,0.00,meteohub,2013-09-02 16:33:00,
2013-09-02 09:34:00,64.8,47.3,25.07,SE,135,0.0,0.0,53,0.00,,,0.00,meteohub,2013-09-02 16:34:00,
2013-09-02 09:37:00,64.9,47.5,25.07,SE,135,0.0,0.0,53,0.00,,,0.00,meteohub,2013-09-02 16:37:00,
2013-09-02 09:39:00,65.1,47.5,25.07,SSE,158,0.0,0.0,53,0.00,,,0.00,meteohub,2013-09-02 16:39:00,
2013-09-02 09:42:00,65.3,47.3,25.07,SSE,158,0.0,0.0,52,0.00,,,0.00,meteohub,2013-09-02 16:42:00,
2013-09-02 09:43:00,65.5,47.5,25.07,SE,135,0.0,0.0,52,0.00,,,0.00,meteohub,2013-09-02 16:43:00,
2013-09-02 09:44:00,65.5,46.9,25.07,SSE,158,0.0,0.0,51,0.00,,,0.00,meteohub,2013-09-02 16:44:00,
2013-09-02 09:45:00,65.5,46.9,25.06,SSE,158,0.0,0.0,51,0.00,,,0.00,meteohub,2013-09-02 16:45:00,
2013-09-02 09:50:00,66.0,46.8,25.06,SE,135,0.0,0.0,50,0.00,,,0.00,meteohub,2013-09-02 16:50:00,
2013-09-02 09:52:00,66.0,46.8,25.06,SSE,158,0.0,0.0,50,0.00,,,0.00,meteohub,2013-09-02 16:52:00,
2013-09-02 09:54:00,66.4,47.1,25.06,SSE,158,0.0,0.0,50,0.00,,,0.00,meteohub,2013-09-02 16:54:00,
2013-09-02 09:59:00,66.7,46.9,25.06,SE,135,0.0,0.0,49,0.00,,,0.00,meteohub,2013-09-02 16:59:00,
2013-09-02 10:00:00,66.7,46.9,25.06,SE,135,0.0,0.0,49,0.00,,,0.00,meteohub,2013-09-02 17:00:00,
2013-09-02 10:01:00,66.9,47.1,25.06,SE,135,0.0,0.0,49,0.00,,,0.00,meteohub,2013-09-02 17:01:00,
2013-09-02 10:02:00,66.9,47.1,25.06,SE,135,0.0,0.0,49,0.00,,,0.00,meteohub,2013-09-02 17:02:00,
2013-09-02 10:06:00,67.1,47.3,25.06,SSE,158,0.0,0.0,49,0.00,,,0.00,meteohub,2013-09-02 17:06:00,
2013-09-02 10:07:00,67.1,46.8,25.06,SSE,158,0.0,0.0,48,0.00,,,0.00,meteohub,2013-09-02 17:07:00,
2013-09-02 10:08:00,67.3,46.9,25.06,SSE,158,0.0,0.0,48,0.00,,,0.00,meteohub,2013-09-02 17:08:00,
2013-09-02 10:10:00,67.3,46.9,25.06,SSE,158,0.0,0.0,48,0.00,,,0.00,meteohub,2013-09-02 17:10:00,
2013-09-02 10:14:00,67.6,47.3,25.06,SSE,158,0.0,0.0,48,0.00,,,0.00,meteohub,2013-09-02 17:14:00,
2013-09-02 10:16:00,67.8,46.9,25.06,SE,135,0.0,0.0,47,0.00,,,0.00,meteohub,2013-09-02 17:16:00,
2013-09-02 10:17:00,67.8,46.2,25.06,SE,135,0.0,0.0,46,0.00,,,0.00,meteohub,2013-09-02 17:17:00,
2013-09-02 10:22:00,68.2,46.0,25.06,SSE,158,0.0,0.0,45,0.00,,,0.00,meteohub,2013-09-02 17:22:00,
2013-09-02 10:23:00,68.4,46.2,25.06,SSE,158,0.0,0.0,45,0.00,,,0.00,meteohub,2013-09-02 17:23:00,
2013-09-02 10:25:00,68.5,46.4,25.06,SSE,158,0.0,0.0,45,0.00,,,0.00,meteohub,2013-09-02 17:25:00,
2013-09-02 10:27:00,68.7,46.6,25.06,SE,135,0.0,0.0,45,0.00,,,0.00,meteohub,2013-09-02 17:27:00,
2013-09-02 10:28:00,68.7,45.9,25.06,SE,135,0.0,0.0,44,0.00,,,0.00,meteohub,2013-09-02 17:28:00,
2013-09-02 10:33:00,69.1,46.2,25.06,SE,135,0.0,0.0,44,0.00,,,0.00,meteohub,2013-09-02 17:33:00,
2013-09-02 10:34:00,69.1,46.2,25.06,SE,135,0.0,0.0,44,0.00,,,0.00,meteohub,2013-09-02 17:34:00,
2013-09-02 10:36:00,69.4,46.6,25.06,SSE,158,0.0,0.0,44,0.00,,,0.00,meteohub,2013-09-02 17:36:00,
2013-09-02 10:37:00,69.3,46.4,25.06,SE,135,0.0,0.0,44,0.00,,,0.00,meteohub,2013-09-02 17:37:00,
2013-09-02 10:38:00,69.3,46.4,25.06,SE,135,0.0,0.0,44,0.00,,,0.00,meteohub,2013-09-02 17:38:00,
2013-09-02 10:39:00,69.3,46.4,25.05,SE,135,0.0,0.0,44,0.00,,,0.00,meteohub,2013-09-02 17:39:00,
2013-09-02 10:41:00,69.3,46.4,25.05,SE,135,0.0,0.0,44,0.00,,,0.00,meteohub,2013-09-02 17:41:00,
2013-09-02 10:43:00,69.3,46.4,25.05,SE,135,0.0,0.0,44,0.00,,,0.00,meteohub,2013-09-02 17:43:00,
2013-09-02 10:46:00,69.6,46.8,25.05,SSE,158,0.0,0.0,44,0.00,,,0.00,meteohub,2013-09-02 17:46:00,
2013-09-02 10:47:00,69.6,46.8,25.05,ESE,113,0.0,0.0,44,0.00,,,0.00,meteohub,2013-09-02 17:47:00,
2013-09-02 10:49:00,69.8,46.2,25.05,SE,135,0.0,0.0,43,0.00,,,0.00,meteohub,2013-09-02 17:49:00,
2013-09-02 10:53:00,70.3,46.2,25.05,South,180,0.0,0.0,42,0.00,,,0.00,meteohub,2013-09-02 17:53:00,
2013-09-02 10:54:00,70.3,46.2,25.05,SSE,158,0.0,0.0,42,0.00,,,0.00,meteohub,2013-09-02 17:54:00,
2013-09-02 10:57:00,70.7,46.4,25.05,SE,135,0.0,0.0,42,0.00,,,0.00,meteohub,2013-09-02 17:57:00,
2013-09-02 10:59:00,70.7,45.9,25.05,SSE,158,0.0,0.0,41,0.00,,,0.00,meteohub,2013-09-02 17:59:00,
2013-09-02 11:00:00,70.9,46.0,25.05,SE,135,0.0,0.0,41,0.00,,,0.00,meteohub,2013-09-02 18:00:00,
2013-09-02 11:01:00,70.9,46.0,25.05,SE,135,0.0,0.0,41,0.00,,,0.00,meteohub,2013-09-02 18:01:00,
2013-09-02 11:02:00,70.9,46.0,25.05,SSE,158,0.0,0.0,41,0.00,,,0.00,meteohub,2013-09-02 18:02:00,
2013-09-02 11:04:00,71.2,46.4,25.05,SSE,158,0.0,0.0,41,0.00,,,0.00,meteohub,2013-09-02 18:04:00,
2013-09-02 11:06:00,71.2,46.4,25.05,SE,135,0.0,0.0,41,0.00,,,0.00,meteohub,2013-09-02 18:06:00,
2013-09-02 11:07:00,71.2,46.4,25.05,SE,135,0.0,0.0,41,0.00,,,0.00,meteohub,2013-09-02 18:07:00,
2013-09-02 11:09:00,71.4,46.6,25.05,SE,135,0.0,0.0,41,0.00,,,0.00,meteohub,2013-09-02 18:09:00,
2013-09-02 11:12:00,71.8,46.8,25.05,SE,135,0.0,0.0,41,0.00,,,0.00,meteohub,2013-09-02 18:12:00,
2013-09-02 11:13:00,71.8,46.8,25.05,ENE,68,0.0,0.0,41,0.00,,,0.00,meteohub,2013-09-02 18:13:00,
2013-09-02 11:14:00,71.8,46.8,25.05,SE,135,0.0,0.0,41,0.00,,,0.00,meteohub,2013-09-02 18:14:00,
2013-09-02 11:16:00,71.8,46.8,25.05,SE,135,0.0,0.0,41,0.00,,,0.00,meteohub,2013-09-02 18:16:00,
2013-09-02 11:17:00,72.0,46.9,25.05,East,90,0.0,0.0,41,0.00,,,0.00,meteohub,2013-09-02 18:17:00,
2013-09-02 11:19:00,72.1,46.4,25.05,SSE,158,0.0,0.0,40,0.00,,,0.00,meteohub,2013-09-02 18:19:00,
2013-09-02 11:20:00,72.1,46.4,25.05,SE,135,0.0,0.0,40,0.00,,,0.00,meteohub,2013-09-02 18:20:00,
2013-09-02 11:22:00,72.3,46.6,25.05,SE,135,0.0,0.0,40,0.00,,,0.00,meteohub,2013-09-02 18:22:00,
2013-09-02 11:25:00,72.3,46.6,25.05,SE,135,0.0,0.0,40,0.00,,,0.00,meteohub,2013-09-02 18:25:00,
2013-09-02 11:26:00,72.3,46.6,25.05,SE,135,0.0,0.0,40,0.00,,,0.00,meteohub,2013-09-02 18:26:00,
2013-09-02 11:28:00,72.3,46.0,25.05,SSE,158,0.0,0.0,39,0.00,,,0.00,meteohub,2013-09-02 18:28:00,
2013-09-02 11:29:00,72.3,46.0,25.05,SE,135,0.0,0.0,39,0.00,,,0.00,meteohub,2013-09-02 18:29:00,
2013-09-02 11:30:00,72.3,46.0,25.05,SE,135,0.0,0.0,39,0.00,,,0.00,meteohub,2013-09-02 18:30:00,
2013-09-02 11:32:00,72.3,46.0,25.05,ESE,113,0.0,0.0,39,0.00,,,0.00,meteohub,2013-09-02 18:32:00,
2013-09-02 11:33:00,72.5,45.5,25.05,SE,135,0.0,0.0,38,0.00,,,0.00,meteohub,2013-09-02 18:33:00,
2013-09-02 11:34:00,72.7,45.7,25.05,SE,135,0.0,0.0,38,0.00,,,0.00,meteohub,2013-09-02 18:34:00,
2013-09-02 11:35:00,72.7,45.7,25.05,ESE,113,0.0,0.0,38,0.00,,,0.00,meteohub,2013-09-02 18:35:00,
2013-09-02 11:37:00,72.7,45.7,25.04,SE,135,0.0,0.0,38,0.00,,,0.00,meteohub,2013-09-02 18:37:00,
2013-09-02 11:39:00,73.0,45.1,25.05,SE,135,0.0,0.0,37,0.00,,,0.00,meteohub,2013-09-02 18:39:00,
2013-09-02 11:40:00,73.0,45.1,25.04,SE,135,0.0,0.0,37,0.00,,,0.00,meteohub,2013-09-02 18:40:00,
2013-09-02 11:45:00,73.2,45.3,25.05,SE,135,0.0,0.0,37,0.00,,,0.00,meteohub,2013-09-02 18:45:00,
2013-09-02 11:46:00,73.6,45.7,25.05,SE,135,0.0,0.0,37,0.00,,,0.00,meteohub,2013-09-02 18:46:00,
2013-09-02 11:47:00,73.6,45.7,25.05,SE,135,0.0,0.0,37,0.00,,,0.00,meteohub,2013-09-02 18:47:00,
2013-09-02 11:48:00,73.8,46.6,25.05,SE,135,0.0,0.0,38,0.00,,,0.00,meteohub,2013-09-02 18:48:00,
2013-09-02 11:51:00,73.9,46.8,25.05,SSE,158,0.0,0.0,38,0.00,,,0.00,meteohub,2013-09-02 18:51:00,
2013-09-02 11:52:00,73.9,46.8,25.05,SE,135,0.0,0.0,38,0.00,,,0.00,meteohub,2013-09-02 18:52:00,
2013-09-02 11:54:00,74.1,46.9,25.05,SSE,158,0.0,0.0,38,0.00,,,0.00,meteohub,2013-09-02 18:54:00,
2013-09-02 11:56:00,74.5,46.6,25.05,South,180,0.0,0.0,37,0.00,,,0.00,meteohub,2013-09-02 18:56:00,
2013-09-02 11:57:00,74.5,46.6,25.05,SSE,158,0.0,0.0,37,0.00,,,0.00,meteohub,2013-09-02 18:57:00,
2013-09-02 11:59:00,74.8,46.8,25.05,SSE,158,0.0,0.0,37,0.00,,,0.00,meteohub,2013-09-02 18:59:00,
2013-09-02 12:01:00,74.8,46.8,25.05,SE,135,0.0,0.0,37,0.00,,,0.00,meteohub,2013-09-02 19:01:00,
2013-09-02 12:02:00,75.0,46.9,25.05,ESE,113,0.0,0.0,37,0.00,,,0.00,meteohub,2013-09-02 19:02:00,
2013-09-02 12:04:00,75.0,46.9,25.05,SSE,158,0.0,0.0,37,0.00,,,0.00,meteohub,2013-09-02 19:04:00,
2013-09-02 12:07:00,75.4,47.3,25.05,SE,135,0.0,0.0,37,0.00,,,0.00,meteohub,2013-09-02 19:07:00,
2013-09-02 12:08:00,75.4,47.3,25.04,SW,225,0.0,0.0,37,0.00,,,0.00,meteohub,2013-09-02 19:08:00,
2013-09-02 12:09:00,75.4,47.3,25.04,SSE,158,0.0,0.0,37,0.00,,,0.00,meteohub,2013-09-02 19:09:00,
2013-09-02 12:10:00,75.4,46.6,25.04,SSE,158,0.0,0.0,36,0.00,,,0.00,meteohub,2013-09-02 19:10:00,
2013-09-02 12:13:00,75.7,46.2,25.05,SE,135,0.0,0.0,35,0.00,,,0.00,meteohub,2013-09-02 19:13:00,
2013-09-02 12:16:00,75.7,46.2,25.04,SE,135,0.0,0.0,35,0.00,,,0.00,meteohub,2013-09-02 19:16:00,
2013-09-02 12:17:00,75.7,46.2,25.04,SE,135,0.0,0.0,35,0.00,,,0.00,meteohub,2013-09-02 19:17:00,
2013-09-02 12:18:00,75.9,45.5,25.04,SE,135,0.0,0.0,34,0.00,,,0.00,meteohub,2013-09-02 19:18:00,
2013-09-02 12:21:00,75.9,45.5,25.04,SE,135,0.0,0.0,34,0.00,,,0.00,meteohub,2013-09-02 19:21:00,
2013-09-02 12:22:00,76.1,45.7,25.05,SE,135,0.0,0.0,34,0.00,,,0.00,meteohub,2013-09-02 19:22:00,
2013-09-02 12:23:00,75.9,45.5,25.04,SE,135,0.0,0.0,34,0.00,,,0.00,meteohub,2013-09-02 19:23:00,
2013-09-02 12:24:00,75.9,45.5,25.04,SSE,158,0.0,0.0,34,0.00,,,0.00,meteohub,2013-09-02 19:24:00,
2013-09-02 12:27:00,75.9,45.5,25.04,SE,135,0.0,0.0,34,0.00,,,0.00,meteohub,2013-09-02 19:27:00,
2013-09-02 12:29:00,76.1,45.7,25.04,SE,135,0.0,0.0,34,0.00,,,0.00,meteohub,2013-09-02 19:29:00,
2013-09-02 12:30:00,76.3,45.9,25.04,SE,135,0.0,0.0,34,0.00,,,0.00,meteohub,2013-09-02 19:30:00,
2013-09-02 12:31:00,76.3,45.9,25.04,SE,135,0.0,0.0,34,0.00,,,0.00,meteohub,2013-09-02 19:31:00,
2013-09-02 12:32:00,76.3,45.9,25.04,SE,135,0.0,0.0,34,0.00,,,0.00,meteohub,2013-09-02 19:32:00,
2013-09-02 12:37:00,76.6,46.9,25.04,SE,135,0.0,0.0,35,0.00,,,0.00,meteohub,2013-09-02 19:37:00,
2013-09-02 12:38:00,76.8,47.1,25.04,SE,135,0.0,0.0,35,0.00,,,0.00,meteohub,2013-09-02 19:38:00,
2013-09-02 12:40:00,76.8,47.1,25.04,ESE,113,0.0,0.0,35,0.00,,,0.00,meteohub,2013-09-02 19:40:00,
2013-09-02 12:42:00,76.8,46.4,25.04,SE,135,0.0,0.0,34,0.00,,,0.00,meteohub,2013-09-02 19:42:00,
2013-09-02 12:43:00,77.0,45.7,25.04,ESE,113,0.0,0.0,33,0.00,,,0.00,meteohub,2013-09-02 19:43:00,
2013-09-02 12:45:00,77.0,45.7,25.04,SE,135,0.0,0.0,33,0.00,,,0.00,meteohub,2013-09-02 19:45:00,
2013-09-02 12:47:00,77.0,45.7,25.04,SE,135,0.0,0.0,33,0.00,,,0.00,meteohub,2013-09-02 19:47:00,
2013-09-02 12:49:00,77.0,45.7,25.05,SE,135,0.0,0.0,33,0.00,,,0.00,meteohub,2013-09-02 19:49:00,
2013-09-02 12:52:00,77.2,45.9,25.04,SE,135,0.0,0.0,33,0.00,,,0.00,meteohub,2013-09-02 19:52:00,
2013-09-02 12:53:00,77.2,45.9,25.04,SE,135,0.0,0.0,33,0.00,,,0.00,meteohub,2013-09-02 19:53:00,
2013-09-02 12:54:00,77.2,45.9,25.04,SSE,158,0.0,0.0,33,0.00,,,0.00,meteohub,2013-09-02 19:54:00,
2013-09-02 12:55:00,76.8,45.5,25.04,SSE,158,0.0,0.0,33,0.00,,,0.00,meteohub,2013-09-02 19:55:00,
2013-09-02 12:57:00,76.8,45.5,25.04,SSE,158,0.0,0.0,33,0.00,,,0.00,meteohub,2013-09-02 19:57:00,
2013-09-02 12:59:00,76.8,45.5,25.03,East,90,0.0,0.0,33,0.00,,,0.00,meteohub,2013-09-02 19:59:00,
2013-09-02 13:01:00,76.8,45.5,25.03,SE,135,0.0,0.0,33,0.00,,,0.00,meteohub,2013-09-02 20:01:00,
2013-09-02 13:03:00,77.2,45.9,25.03,South,180,0.0,0.0,33,0.00,,,0.00,meteohub,2013-09-02 20:03:00,
2013-09-02 13:06:00,77.2,45.9,25.03,ESE,113,0.0,0.0,33,0.00,,,0.00,meteohub,2013-09-02 20:06:00,
2013-09-02 13:07:00,77.2,45.9,25.03,ESE,113,0.0,0.0,33,0.00,,,0.00,meteohub,2013-09-02 20:07:00,
2013-09-02 13:10:00,77.5,45.3,25.03,SE,135,0.0,0.0,32,0.00,,,0.00,meteohub,2013-09-02 20:10:00,
2013-09-02 13:11:00,77.5,45.3,25.03,SE,135,0.0,0.0,32,0.00,,,0.00,meteohub,2013-09-02 20:11:00,
2013-09-02 13:12:00,77.5,45.3,25.03,SE,135,0.0,0.0,32,0.00,,,0.00,meteohub,2013-09-02 20:12:00,
2013-09-02 13:15:00,77.5,45.3,25.03,ENE,68,0.0,0.0,32,0.00,,,0.00,meteohub,2013-09-02 20:15:00,
2013-09-02 13:16:00,77.5,45.3,25.03,SE,135,0.0,0.0,32,0.00,,,0.00,meteohub,2013-09-02 20:16:00,
2013-09-02 13:17:00,77.5,45.3,25.03,SE,135,0.0,0.0,32,0.00,,,0.00,meteohub,2013-09-02 20:17:00,
2013-09-02 13:22:00,77.7,45.5,25.03,SE,135,0.0,0.0,32,0.00,,,0.00,meteohub,2013-09-02 20:22:00,
2013-09-02 13:25:00,77.9,45.7,25.03,SE,135,0.0,0.0,32,0.00,,,0.00,meteohub,2013-09-02 20:25:00,
2013-09-02 13:26:00,78.1,45.9,25.03,SE,135,0.0,0.0,32,0.00,,,0.00,meteohub,2013-09-02 20:26:00,
2013-09-02 13:30:00,78.1,45.9,25.03,SSE,158,0.0,0.0,32,0.00,,,0.00,meteohub,2013-09-02 20:30:00,
2013-09-02 13:31:00,78.1,45.0,25.03,East,90,0.0,0.0,31,0.00,,,0.00,meteohub,2013-09-02 20:31:00,
2013-09-02 13:32:00,78.1,45.0,25.03,East,90,0.0,0.0,31,0.00,,,0.00,meteohub,2013-09-02 20:32:00,
2013-09-02 13:35:00,78.4,45.3,25.03,SE,135,0.0,0.0,31,0.00,,,0.00,meteohub,2013-09-02 20:35:00,
2013-09-02 13:36:00,78.6,44.6,25.03,East,90,0.0,0.0,30,0.00,,,0.00,meteohub,2013-09-02 20:36:00,
2013-09-02 13:37:00,78.6,44.6,25.03,SSE,158,0.0,0.0,30,0.00,,,0.00,meteohub,2013-09-02 20:37:00,
2013-09-02 13:40:00,78.6,44.6,25.03,South,180,0.0,0.0,30,0.00,,,0.00,meteohub,2013-09-02 20:40:00,
2013-09-02 13:42:00,78.6,43.7,25.03,SE,135,0.0,0.0,29,0.00,,,0.00,meteohub,2013-09-02 20:42:00,
2013-09-02 13:45:00,78.8,43.9,25.02,SE,135,0.0,0.0,29,0.00,,,0.00,meteohub,2013-09-02 20:45:00,
2013-09-02 13:46:00,79.0,44.1,25.02,SE,135,0.0,0.0,29,0.00,,,0.00,meteohub,2013-09-02 20:46:00,
2013-09-02 13:47:00,79.0,44.1,25.02,SSE,158,0.0,0.0,29,0.00,,,0.00,meteohub,2013-09-02 20:47:00,
2013-09-02 13:53:00,79.2,42.3,25.02,SSE,158,0.0,0.0,27,0.00,,,0.00,meteohub,2013-09-02 20:53:00,
2013-09-02 13:54:00,79.2,42.3,25.02,ESE,113,0.0,0.0,27,0.00,,,0.00,meteohub,2013-09-02 20:54:00,
2013-09-02 13:55:00,79.2,42.3,25.03,SSE,158,0.0,0.0,27,0.00,,,0.00,meteohub,2013-09-02 20:55:00,
2013-09-02 13:58:00,79.2,42.3,25.03,ENE,68,0.0,0.0,27,0.00,,,0.00,meteohub,2013-09-02 20:58:00,
2013-09-02 14:00:00,79.3,41.5,25.02,SE,135,0.0,0.0,26,0.00,,,0.00,meteohub,2013-09-02 21:00:00,
2013-09-02 14:02:00,79.3,41.5,25.02,ESE,113,0.0,0.0,26,0.00,,,0.00,meteohub,2013-09-02 21:02:00,
2013-09-02 14:03:00,79.3,41.5,25.02,SSE,158,0.0,0.0,26,0.00,,,0.00,meteohub,2013-09-02 21:03:00,
2013-09-02 14:05:00,79.5,41.5,25.02,SE,135,0.0,0.0,26,0.00,,,0.00,meteohub,2013-09-02 21:05:00,
2013-09-02 14:06:00,79.5,40.6,25.03,SE,135,0.0,0.0,25,0.00,,,0.00,meteohub,2013-09-02 21:06:00,
2013-09-02 14:08:00,79.5,40.6,25.02,SE,135,0.0,0.0,25,0.00,,,0.00,meteohub,2013-09-02 21:08:00,
2013-09-02 14:11:00,79.5,40.6,25.02,SSE,158,0.0,0.0,25,0.00,,,0.00,meteohub,2013-09-02 21:11:00,
2013-09-02 14:13:00,79.5,39.6,25.03,SE,135,0.0,0.0,24,0.00,,,0.00,meteohub,2013-09-02 21:13:00,
2013-09-02 14:16:00,79.7,39.7,25.02,SE,135,0.0,0.0,24,0.00,,,0.00,meteohub,2013-09-02 21:16:00,
2013-09-02 14:17:00,79.7,39.7,25.02,SE,135,0.0,0.0,24,0.00,,,0.00,meteohub,2013-09-02 21:17:00,
2013-09-02 14:18:00,79.9,39.9,25.02,SSE,158,0.0,0.0,24,0.00,,,0.00,meteohub,2013-09-02 21:18:00,
2013-09-02 14:19:00,79.9,39.9,25.02,SE,135,0.0,0.0,24,0.00,,,0.00,meteohub,2013-09-02 21:19:00,
2013-09-02 14:21:00,79.9,39.9,25.02,SE,135,0.0,0.0,24,0.00,,,0.00,meteohub,2013-09-02 21:21:00,
2013-09-02 14:22:00,79.9,39.9,25.02,SE,135,0.0,0.0,24,0.00,,,0.00,meteohub,2013-09-02 21:22:00,
2013-09-02 14:23:00,80.1,40.1,25.02,SE,135,0.0,0.0,24,0.00,,,0.00,meteohub,2013-09-02 21:23:00,
2013-09-02 14:25:00,80.2,40.1,25.02,South,180,0.0,0.0,24,0.00,,,0.00,meteohub,2013-09-02 21:25:00,
2013-09-02 14:27:00,80.2,40.1,25.02,SSE,158,0.0,0.0,24,0.00,,,0.00,meteohub,2013-09-02 21:27:00,
2013-09-02 14:29:00,80.4,40.3,25.02,SE,135,0.0,0.0,24,0.00,,,0.00,meteohub,2013-09-02 21:29:00,
2013-09-02 14:30:00,80.4,40.3,25.02,SSE,158,0.0,0.0,24,0.00,,,0.00,meteohub,2013-09-02 21:30:00,
2013-09-02 14:31:00,80.4,40.3,25.02,SE,135,0.0,0.0,24,0.00,,,0.00,meteohub,2013-09-02 21:31:00,
2013-09-02 14:35:00,80.8,40.6,25.02,SSE,158,0.0,0.0,24,0.00,,,0.00,meteohub,2013-09-02 21:35:00,
2013-09-02 14:37:00,80.8,39.6,25.02,South,180,0.0,0.0,23,0.00,,,0.00,meteohub,2013-09-02 21:37:00,
2013-09-02 14:38:00,81.0,39.7,25.02,SSE,158,0.0,0.0,23,0.00,,,0.00,meteohub,2013-09-02 21:38:00,
2013-09-02 14:40:00,81.1,39.7,25.02,SE,135,0.0,0.0,23,0.00,,,0.00,meteohub,2013-09-02 21:40:00,
2013-09-02 14:42:00,81.1,39.7,25.02,SSE,158,0.0,0.0,23,0.00,,,0.00,meteohub,2013-09-02 21:42:00,
2013-09-02 14:46:00,81.1,38.7,25.02,SE,135,0.0,0.0,22,0.00,,,0.00,meteohub,2013-09-02 21:46:00,
2013-09-02 14:47:00,81.1,38.7,25.02,SE,135,0.0,0.0,22,0.00,,,0.00,meteohub,2013-09-02 21:47:00,
2013-09-02 14:48:00,81.1,38.7,25.02,South,180,0.0,0.0,22,0.00,,,0.00,meteohub,2013-09-02 21:48:00,
2013-09-02 14:52:00,81.0,38.5,25.02,SE,135,0.0,0.0,22,0.00,,,0.00,meteohub,2013-09-02 21:52:00,
2013-09-02 14:53:00,81.0,38.5,25.02,SSE,158,0.0,0.0,22,0.00,,,0.00,meteohub,2013-09-02 21:53:00,
2013-09-02 14:54:00,81.0,38.5,25.02,SSE,158,0.0,0.0,22,0.00,,,0.00,meteohub,2013-09-02 21:54:00,
2013-09-02 14:59:00,81.0,38.5,25.01,South,180,0.0,0.0,22,0.00,,,0.00,meteohub,2013-09-02 21:59:00,
2013-09-02 15:00:00,80.8,38.5,25.01,SE,135,0.0,0.0,22,0.00,,,0.00,meteohub,2013-09-02 22:00:00,
2013-09-02 15:03:00,81.0,38.5,25.01,South,180,0.0,0.0,22,0.00,,,0.00,meteohub,2013-09-02 22:03:00,
2013-09-02 15:05:00,81.0,38.5,25.01,SE,135,0.0,0.0,22,0.00,,,0.00,meteohub,2013-09-02 22:05:00,
2013-09-02 15:06:00,81.1,37.6,25.01,SSE,158,0.0,0.0,21,0.00,,,0.00,meteohub,2013-09-02 22:06:00,
2013-09-02 15:07:00,81.1,37.6,25.01,SSE,158,0.0,0.0,21,0.00,,,0.00,meteohub,2013-09-02 22:07:00,
2013-09-02 15:11:00,81.1,37.6,25.01,SE,135,0.0,0.0,21,0.00,,,0.00,meteohub,2013-09-02 22:11:00,
2013-09-02 15:12:00,81.1,37.6,25.01,SE,135,0.0,0.0,21,0.00,,,0.00,meteohub,2013-09-02 22:12:00,
2013-09-02 15:15:00,81.1,37.6,25.01,SE,135,0.0,0.0,21,0.00,,,0.00,meteohub,2013-09-02 22:15:00,
2013-09-02 15:19:00,81.3,37.6,25.02,SE,135,0.0,0.0,21,0.00,,,0.00,meteohub,2013-09-02 22:19:00,
2013-09-02 15:20:00,81.1,37.6,25.01,South,180,0.0,0.0,21,0.00,,,0.00,meteohub,2013-09-02 22:20:00,
2013-09-02 15:21:00,81.3,37.6,25.01,SSW,203,0.0,0.0,21,0.00,,,0.00,meteohub,2013-09-02 22:21:00,
2013-09-02 15:22:00,81.3,37.6,25.01,SSW,203,0.0,0.0,21,0.00,,,0.00,meteohub,2013-09-02 22:22:00,
2013-09-02 15:26:00,81.1,37.6,25.01,SW,225,0.0,0.0,21,0.00,,,0.00,meteohub,2013-09-02 22:26:00,
2013-09-02 15:27:00,81.1,36.3,25.01,SSE,158,0.0,0.0,20,0.00,,,0.00,meteohub,2013-09-02 22:27:00,
2013-09-02 15:28:00,81.1,36.3,25.01,SSW,203,0.0,0.0,20,0.00,,,0.00,meteohub,2013-09-02 22:28:00,
2013-09-02 15:30:00,81.1,36.3,25.01,SE,135,0.0,0.0,20,0.00,,,0.00,meteohub,2013-09-02 22:30:00,
2013-09-02 15:31:00,81.1,36.3,25.01,ESE,113,0.0,0.0,20,0.00,,,0.00,meteohub,2013-09-02 22:31:00,
2013-09-02 15:33:00,81.1,36.3,25.01,SSE,158,0.0,0.0,20,0.00,,,0.00,meteohub,2013-09-02 22:33:00,
2013-09-02 15:34:00,81.1,36.3,25.01,SE,135,0.0,0.0,20,0.00,,,0.00,meteohub,2013-09-02 22:34:00,
2013-09-02 15:35:00,81.1,37.6,25.01,SE,135,0.0,0.0,21,0.00,,,0.00,meteohub,2013-09-02 22:35:00,
2013-09-02 15:38:00,81.3,37.6,25.01,South,180,0.0,0.0,21,0.00,,,0.00,meteohub,2013-09-02 22:38:00,
2013-09-02 15:39:00,81.3,37.6,25.01,SSE,158,0.0,0.0,21,0.00,,,0.00,meteohub,2013-09-02 22:39:00,
2013-09-02 15:40:00,81.3,37.6,25.01,SE,135,0.0,0.0,21,0.00,,,0.00,meteohub,2013-09-02 22:40:00,
2013-09-02 15:41:00,81.3,37.6,25.01,SSE,158,0.0,0.0,21,0.00,,,0.00,meteohub,2013-09-02 22:41:00,
2013-09-02 15:42:00,81.5,37.8,25.01,SE,135,0.0,0.0,21,0.00,,,0.00,meteohub,2013-09-02 22:42:00,
2013-09-02 15:44:00,81.5,36.5,25.01,SSE,158,0.0,0.0,20,0.00,,,0.00,meteohub,2013-09-02 22:44:00,
2013-09-02 15:47:00,81.5,36.5,25.01,SSE,158,0.0,0.0,20,0.00,,,0.00,meteohub,2013-09-02 22:47:00,
2013-09-02 15:48:00,81.5,36.5,25.01,SSE,158,0.0,0.0,20,0.00,,,0.00,meteohub,2013-09-02 22:48:00,
2013-09-02 15:50:00,81.5,36.5,25.01,SW,225,0.0,0.0,20,0.00,,,0.00,meteohub,2013-09-02 22:50:00,
2013-09-02 15:52:00,81.7,36.7,25.00,SSW,203,0.0,0.0,20,0.00,,,0.00,meteohub,2013-09-02 22:52:00,
2013-09-02 15:54:00,81.5,36.5,25.01,SE,135,0.0,0.0,20,0.00,,,0.00,meteohub,2013-09-02 22:54:00,
2013-09-02 15:57:00,81.5,36.5,25.01,SSE,158,0.0,0.0,20,0.00,,,0.00,meteohub,2013-09-02 22:57:00,
2013-09-02 15:58:00,81.5,36.5,25.01,SSE,158,0.0,0.0,20,0.00,,,0.00,meteohub,2013-09-02 22:58:00,
2013-09-02 16:01:00,81.5,35.2,25.00,SW,225,0.0,0.0,19,0.00,,,0.00,meteohub,2013-09-02 23:01:00,
2013-09-02 16:02:00,81.5,35.2,25.00,SSE,158,0.0,0.0,19,0.00,,,0.00,meteohub,2013-09-02 23:02:00,
2013-09-02 16:03:00,81.5,35.2,25.01,SSE,158,0.0,0.0,19,0.00,,,0.00,meteohub,2013-09-02 23:03:00,
2013-09-02 16:05:00,81.5,35.2,25.01,East,90,0.0,0.0,19,0.00,,,0.00,meteohub,2013-09-02 23:05:00,
2013-09-02 16:09:00,81.5,35.2,25.01,South,180,0.0,0.0,19,0.00,,,0.00,meteohub,2013-09-02 23:09:00,
2013-09-02 16:11:00,81.3,35.1,25.01,SE,135,0.0,0.0,19,0.00,,,0.00,meteohub,2013-09-02 23:11:00,
2013-09-02 16:12:00,81.3,35.1,25.01,ESE,113,0.0,0.0,19,0.00,,,0.00,meteohub,2013-09-02 23:12:00,
2013-09-02 16:14:00,81.3,35.1,25.01,SE,135,0.0,0.0,19,0.00,,,0.00,meteohub,2013-09-02 23:14:00,
2013-09-02 16:15:00,81.3,35.1,25.01,SSE,158,0.0,0.0,19,0.00,,,0.00,meteohub,2013-09-02 23:15:00,
2013-09-02 16:16:00,81.3,35.1,25.01,SSW,203,0.0,0.0,19,0.00,,,0.00,meteohub,2013-09-02 23:16:00,
2013-09-02 16:17:00,81.3,35.1,25.01,SSE,158,0.0,0.0,19,0.00,,,0.00,meteohub,2013-09-02 23:17:00,
2013-09-02 16:21:00,81.3,33.8,25.01,South,180,0.0,0.0,18,0.00,,,0.00,meteohub,2013-09-02 23:21:00,
2013-09-02 16:23:00,81.3,33.8,25.01,SW,225,0.0,0.0,18,0.00,,,0.00,meteohub,2013-09-02 23:23:00,
2013-09-02 16:24:00,81.3,32.4,25.01,SSE,158,0.0,0.0,17,0.00,,,0.00,meteohub,2013-09-02 23:24:00,
2013-09-02 16:25:00,81.3,32.4,25.01,SSE,158,0.0,0.0,17,0.00,,,0.00,meteohub,2013-09-02 23:25:00,
2013-09-02 16:26:00,81.3,32.4,25.01,SSE,158,0.0,0.0,17,0.00,,,0.00,meteohub,2013-09-02 23:26:00,
2013-09-02 16:29:00,81.5,32.5,25.00,SSE,158,0.0,0.0,17,0.00,,,0.00,meteohub,2013-09-02 23:29:00,
2013-09-02 16:31:00,81.5,32.5,25.00,SE,135,0.0,0.0,17,0.00,,,0.00,meteohub,2013-09-02 23:31:00,
2013-09-02 16:32:00,81.5,32.5,25.00,SE,135,0.0,0.0,17,0.00,,,0.00,meteohub,2013-09-02 23:32:00,
2013-09-02 16:33:00,81.5,32.5,25.01,SSE,158,0.0,0.0,17,0.00,,,0.00,meteohub,2013-09-02 23:33:00,
2013-09-02 16:36:00,81.3,32.4,25.01,South,180,0.0,0.0,17,0.00,,,0.00,meteohub,2013-09-02 23:36:00,
2013-09-02 16:37:00,81.3,32.4,25.01,SE,135,0.0,0.0,17,0.00,,,0.00,meteohub,2013-09-02 23:37:00,
2013-09-02 16:41:00,81.1,32.2,25.01,SSE,158,0.0,0.0,17,0.00,,,0.00,meteohub,2013-09-02 23:41:00,
2013-09-02 16:42:00,81.3,32.4,25.00,SSE,158,0.0,0.0,17,0.00,,,0.00,meteohub,2013-09-02 23:42:00,
2013-09-02 16:43:00,81.1,32.2,25.00,SE,135,0.0,0.0,17,0.00,,,0.00,meteohub,2013-09-02 23:43:00,
2013-09-02 16:45:00,81.1,32.2,25.01,SSE,158,0.0,0.0,17,0.00,,,0.00,meteohub,2013-09-02 23:45:00,
2013-09-02 16:49:00,81.1,30.7,25.01,SSE,158,0.0,0.0,16,0.00,,,0.00,meteohub,2013-09-02 23:49:00,
2013-09-02 16:50:00,81.1,30.7,25.01,SSE,158,0.0,0.0,16,0.00,,,0.00,meteohub,2013-09-02 23:50:00,
2013-09-02 16:51:00,81.1,32.2,25.00,South,180,0.0,0.0,17,0.00,,,0.00,meteohub,2013-09-02 23:51:00,
2013-09-02 16:55:00,81.1,32.2,25.00,South,180,0.0,0.0,17,0.00,,,0.00,meteohub,2013-09-02 23:55:00,
2013-09-02 16:56:00,81.1,32.2,25.01,SE,135,0.0,0.0,17,0.00,,,0.00,meteohub,2013-09-02 23:56:00,
2013-09-02 16:58:00,81.1,32.2,25.01,SSE,158,0.0,0.0,17,0.00,,,0.00,meteohub,2013-09-02 23:58:00,
2013-09-02 17:01:00,81.1,30.7,25.00,SSE,158,0.0,0.0,16,0.00,,,0.00,meteohub,2013-09-03 00:01:00,
2013-09-02 17:04:00,81.1,32.2,25.00,SSE,158,0.0,0.0,17,0.00,,,0.00,meteohub,2013-09-03 00:04:00,
2013-09-02 17:06:00,81.1,32.2,25.00,SW,225,0.0,0.0,17,0.00,,,0.00,meteohub,2013-09-03 00:06:00,
2013-09-02 17:08:00,81.1,30.7,25.00,SSE,158,0.0,0.0,16,0.00,,,0.00,meteohub,2013-09-03 00:08:00,
2013-09-02 17:09:00,81.1,30.7,25.00,South,180,0.0,0.0,16,0.00,,,0.00,meteohub,2013-09-03 00:09:00,
2013-09-02 17:11:00,81.0,30.6,25.00,SE,135,0.0,0.0,16,0.00,,,0.00,meteohub,2013-09-03 00:11:00,
2013-09-02 17:12:00,81.0,30.6,25.00,SSE,158,0.0,0.0,16,0.00,,,0.00,meteohub,2013-09-03 00:12:00,
2013-09-02 17:14:00,80.8,30.4,25.00,SSE,158,0.0,0.0,16,0.00,,,0.00,meteohub,2013-09-03 00:14:00,
2013-09-02 17:16:00,80.6,30.2,25.01,SE,135,0.0,0.0,16,0.00,,,0.00,meteohub,2013-09-03 00:16:00,
2013-09-02 17:18:00,80.6,30.2,25.00,SE,135,0.0,0.0,16,0.00,,,0.00,meteohub,2013-09-03 00:18:00,
2013-09-02 17:19:00,80.4,30.2,25.00,SE,135,0.0,0.0,16,0.00,,,0.00,meteohub,2013-09-03 00:19:00,
2013-09-02 17:20:00,80.4,30.2,25.00,South,180,0.0,0.0,16,0.00,,,0.00,meteohub,2013-09-03 00:20:00,
2013-09-02 17:22:00,80.4,31.6,25.00,South,180,0.0,0.0,17,0.00,,,0.00,meteohub,2013-09-03 00:22:00,
2013-09-02 17:24:00,80.6,31.8,25.00,SE,135,0.0,0.0,17,0.00,,,0.00,meteohub,2013-09-03 00:24:00,
2013-09-02 17:27:00,80.4,31.6,25.00,South,180,0.0,0.0,17,0.00,,,0.00,meteohub,2013-09-03 00:27:00,
2013-09-02 17:29:00,80.6,31.8,25.00,SSE,158,0.0,0.0,17,0.00,,,0.00,meteohub,2013-09-03 00:29:00,
2013-09-02 17:30:00,80.6,31.8,25.00,SE,135,0.0,0.0,17,0.00,,,0.00,meteohub,2013-09-03 00:30:00,
2013-09-02 17:31:00,80.6,31.8,25.00,SE,135,0.0,0.0,17,0.00,,,0.00,meteohub,2013-09-03 00:31:00,
2013-09-02 17:32:00,80.6,31.8,25.00,SE,135,0.0,0.0,17,0.00,,,0.00,meteohub,2013-09-03 00:32:00,
2013-09-02 17:36:00,80.4,31.6,25.00,SSE,158,0.0,0.0,17,0.00,,,0.00,meteohub,2013-09-03 00:36:00,
2013-09-02 17:37:00,80.6,31.8,25.00,SE,135,0.0,0.0,17,0.00,,,0.00,meteohub,2013-09-03 00:37:00,
2013-09-02 17:38:00,80.6,31.8,25.00,SSE,158,0.0,0.0,17,0.00,,,0.00,meteohub,2013-09-03 00:38:00,
2013-09-02 17:39:00,80.4,31.6,25.00,South,180,0.0,0.0,17,0.00,,,0.00,meteohub,2013-09-03 00:39:00,
2013-09-02 17:41:00,80.4,31.6,25.00,WSW,248,0.0,0.0,17,0.00,,,0.00,meteohub,2013-09-03 00:41:00,
2013-09-02 17:42:00,80.4,31.6,25.00,SW,225,0.0,0.0,17,0.00,,,0.00,meteohub,2013-09-03 00:42:00,
2013-09-02 17:43:00,80.2,31.5,25.00,SW,225,0.0,0.0,17,0.00,,,0.00,meteohub,2013-09-03 00:43:00,
2013-09-02 17:45:00,80.2,31.5,25.00,South,180,0.0,0.0,17,0.00,,,0.00,meteohub,2013-09-03 00:45:00,
2013-09-02 17:47:00,79.9,31.1,25.00,SE,135,0.0,0.0,17,0.00,,,0.00,meteohub,2013-09-03 00:47:00,
2013-09-02 17:48:00,79.9,31.1,25.00,SE,135,0.0,0.0,17,0.00,,,0.00,meteohub,2013-09-03 00:48:00,
2013-09-02 17:49:00,79.7,31.1,25.00,SE,135,0.0,0.0,17,0.00,,,0.00,meteohub,2013-09-03 00:49:00,
2013-09-02 17:51:00,79.5,30.9,25.00,SSE,158,0.0,0.0,17,0.00,,,0.00,meteohub,2013-09-03 00:51:00,
2013-09-02 17:54:00,79.3,30.7,25.00,SSE,158,0.0,0.0,17,0.00,,,0.00,meteohub,2013-09-03 00:54:00,
2013-09-02 17:55:00,79.2,30.6,25.00,SSE,158,0.0,0.0,17,0.00,,,0.00,meteohub,2013-09-03 00:55:00,
2013-09-02 17:56:00,79.0,30.4,25.00,SSE,158,0.0,0.0,17,0.00,,,0.00,meteohub,2013-09-03 00:56:00,
2013-09-02 17:57:00,79.0,30.4,25.00,SSE,158,0.0,0.0,17,0.00,,,0.00,meteohub,2013-09-03 00:57:00,
2013-09-02 18:01:00,78.6,30.2,25.00,SSE,158,0.0,0.0,17,0.00,,,0.00,meteohub,2013-09-03 01:01:00,
2013-09-02 18:03:00,78.6,30.2,25.00,SE,135,0.0,0.0,17,0.00,,,0.00,meteohub,2013-09-03 01:03:00,
2013-09-02 18:04:00,78.4,30.0,25.00,SE,135,0.0,0.0,17,0.00,,,0.00,meteohub,2013-09-03 01:04:00,
2013-09-02 18:05:00,78.3,31.3,25.00,SE,135,0.0,0.0,18,0.00,,,0.00,meteohub,2013-09-03 01:05:00,
2013-09-02 18:06:00,78.1,31.1,25.00,SE,135,0.0,0.0,18,0.00,,,0.00,meteohub,2013-09-03 01:06:00,
2013-09-02 18:07:00,78.1,31.1,25.00,SE,135,0.0,0.0,18,0.00,,,0.00,meteohub,2013-09-03 01:07:00,
2013-09-02 18:09:00,77.9,30.9,25.00,SSE,158,0.0,0.0,18,0.00,,,0.00,meteohub,2013-09-03 01:09:00,
2013-09-02 18:10:00,77.9,30.9,25.00,SSE,158,0.0,0.0,18,0.00,,,0.00,meteohub,2013-09-03 01:10:00,
2013-09-02 18:11:00,77.7,30.9,25.00,SE,135,0.0,0.0,18,0.00,,,0.00,meteohub,2013-09-03 01:11:00,
2013-09-02 18:12:00,77.7,30.9,25.00,SE,135,0.0,0.0,18,0.00,,,0.00,meteohub,2013-09-03 01:12:00,
2013-09-02 18:13:00,77.7,30.9,25.00,SE,135,0.0,0.0,18,0.00,,,0.00,meteohub,2013-09-03 01:13:00,
2013-09-02 18:15:00,77.5,30.7,25.00,SSE,158,0.0,0.0,18,0.00,,,0.00,meteohub,2013-09-03 01:15:00,
2013-09-02 18:16:00,77.4,30.6,25.00,SE,135,0.0,0.0,18,0.00,,,0.00,meteohub,2013-09-03 01:16:00,
2013-09-02 18:21:00,76.8,30.0,25.00,SE,135,0.0,0.0,18,0.00,,,0.00,meteohub,2013-09-03 01:21:00,
2013-09-02 18:22:00,76.8,30.0,25.00,SE,135,0.0,0.0,18,0.00,,,0.00,meteohub,2013-09-03 01:22:00,
2013-09-02 18:24:00,76.6,30.0,25.00,SE,135,0.0,0.0,18,0.00,,,0.00,meteohub,2013-09-03 01:24:00,
2013-09-02 18:27:00,76.5,29.8,25.00,SE,135,0.0,0.0,18,0.00,,,0.00,meteohub,2013-09-03 01:27:00,
2013-09-02 18:28:00,76.3,29.7,25.00,SE,135,0.0,0.0,18,0.00,,,0.00,meteohub,2013-09-03 01:28:00,
2013-09-02 18:29:00,76.3,29.7,25.00,SSE,158,0.0,0.0,18,0.00,,,0.00,meteohub,2013-09-03 01:29:00,
2013-09-02 18:31:00,76.1,29.5,25.00,SSE,158,0.0,0.0,18,0.00,,,0.00,meteohub,2013-09-03 01:31:00,
2013-09-02 18:32:00,76.1,29.5,25.00,SSE,158,0.0,0.0,18,0.00,,,0.00,meteohub,2013-09-03 01:32:00,
2013-09-02 18:35:00,75.9,30.7,25.00,SSE,158,0.0,0.0,19,0.00,,,0.00,meteohub,2013-09-03 01:35:00,
2013-09-02 18:37:00,75.9,30.7,25.00,SSE,158,0.0,0.0,19,0.00,,,0.00,meteohub,2013-09-03 01:37:00,
2013-09-02 18:38:00,75.7,30.6,25.00,SSE,158,0.0,0.0,19,0.00,,,0.00,meteohub,2013-09-03 01:38:00,
2013-09-02 18:40:00,75.7,30.6,25.00,SE,135,0.0,0.0,19,0.00,,,0.00,meteohub,2013-09-03 01:40:00,
2013-09-02 18:43:00,75.4,31.5,25.00,SSE,158,0.0,0.0,20,0.00,,,0.00,meteohub,2013-09-03 01:43:00,
2013-09-02 18:44:00,75.4,31.5,25.00,SSE,158,0.0,0.0,20,0.00,,,0.00,meteohub,2013-09-03 01:44:00,
2013-09-02 18:46:00,75.4,30.2,25.00,SSE,158,0.0,0.0,19,0.00,,,0.00,meteohub,2013-09-03 01:46:00,
2013-09-02 18:47:00,75.4,31.5,25.00,SSE,158,0.0,0.0,20,0.00,,,0.00,meteohub,2013-09-03 01:47:00,
2013-09-02 18:51:00,75.0,31.3,25.00,SE,135,0.0,0.0,20,0.00,,,0.00,meteohub,2013-09-03 01:51:00,
2013-09-02 18:52:00,75.0,31.3,25.00,SE,135,0.0,0.0,20,0.00,,,0.00,meteohub,2013-09-03 01:52:00,
2013-09-02 18:53:00,75.0,31.3,25.00,SSE,158,0.0,0.0,20,0.00,,,0.00,meteohub,2013-09-03 01:53:00,
2013-09-02 18:57:00,74.8,31.1,25.00,SE,135,0.0,0.0,20,0.00,,,0.00,meteohub,2013-09-03 01:57:00,
2013-09-02 18:58:00,74.5,30.7,25.00,SE,135,0.0,0.0,20,0.00,,,0.00,meteohub,2013-09-03 01:58:00,
2013-09-02 18:59:00,74.5,30.7,25.00,SE,135,0.0,0.0,20,0.00,,,0.00,meteohub,2013-09-03 01:59:00,
2013-09-02 19:01:00,74.3,29.3,25.00,SE,135,0.0,0.0,19,0.00,,,0.00,meteohub,2013-09-03 02:01:00,
2013-09-02 19:02:00,74.3,29.3,25.00,SE,135,0.0,0.0,19,0.00,,,0.00,meteohub,2013-09-03 02:02:00,
2013-09-02 19:06:00,73.9,29.1,25.01,SSE,158,0.0,0.0,19,0.00,,,0.00,meteohub,2013-09-03 02:06:00,
2013-09-02 19:08:00,73.9,29.1,25.01,SSE,158,0.0,0.0,19,0.00,,,0.00,meteohub,2013-09-03 02:08:00,
2013-09-02 19:09:00,73.8,28.9,25.01,SE,135,0.0,0.0,19,0.00,,,0.00,meteohub,2013-09-03 02:09:00,
2013-09-02 19:11:00,73.6,28.8,25.01,SE,135,0.0,0.0,19,0.00,,,0.00,meteohub,2013-09-03 02:11:00,
2013-09-02 19:12:00,73.6,28.8,25.01,SE,135,0.0,0.0,19,0.00,,,0.00,meteohub,2013-09-03 02:12:00,
2013-09-02 19:13:00,73.2,28.4,25.01,SE,135,0.0,0.0,19,0.00,,,0.00,meteohub,2013-09-03 02:13:00,
2013-09-02 19:17:00,73.0,28.4,25.01,SE,135,0.0,0.0,19,0.00,,,0.00,meteohub,2013-09-03 02:17:00,
2013-09-02 19:18:00,73.0,28.4,25.01,SE,135,0.0,0.0,19,0.00,,,0.00,meteohub,2013-09-03 02:18:00,
2013-09-02 19:19:00,73.0,28.4,25.01,SE,135,0.0,0.0,19,0.00,,,0.00,meteohub,2013-09-03 02:19:00,
2013-09-02 19:20:00,72.9,28.2,25.01,SE,135,0.0,0.0,19,0.00,,,0.00,meteohub,2013-09-03 02:20:00,
2013-09-02 19:22:00,72.7,29.3,25.02,SE,135,0.0,0.0,20,0.00,,,0.00,meteohub,2013-09-03 02:22:00,
2013-09-02 19:24:00,72.5,30.4,25.01,SE,135,0.0,0.0,21,0.00,,,0.00,meteohub,2013-09-03 02:24:00,
2013-09-02 19:27:00,72.3,30.2,25.01,SE,135,0.0,0.0,21,0.00,,,0.00,meteohub,2013-09-03 02:27:00,
2013-09-02 19:28:00,72.1,30.0,25.01,SE,135,0.0,0.0,21,0.00,,,0.00,meteohub,2013-09-03 02:28:00,
2013-09-02 19:29:00,72.1,30.0,25.01,SE,135,0.0,0.0,21,0.00,,,0.00,meteohub,2013-09-03 02:29:00,
2013-09-02 19:31:00,72.0,29.8,25.01,SE,135,0.0,0.0,21,0.00,,,0.00,meteohub,2013-09-03 02:31:00,
2013-09-02 19:32:00,72.0,29.8,25.01,SE,135,0.0,0.0,21,0.00,,,0.00,meteohub,2013-09-03 02:32:00,
2013-09-02 19:33:00,71.8,29.7,25.02,SE,135,0.0,0.0,21,0.00,,,0.00,meteohub,2013-09-03 02:33:00,
2013-09-02 19:34:00,71.6,29.7,25.02,SE,135,0.0,0.0,21,0.00,,,0.00,meteohub,2013-09-03 02:34:00,
2013-09-02 19:36:00,71.4,29.5,25.01,SE,135,0.0,0.0,21,0.00,,,0.00,meteohub,2013-09-03 02:36:00,
2013-09-02 19:37:00,71.4,29.5,25.02,SE,135,0.0,0.0,21,0.00,,,0.00,meteohub,2013-09-03 02:37:00,
2013-09-02 19:40:00,71.2,29.3,25.02,SSE,158,0.0,0.0,21,0.00,,,0.00,meteohub,2013-09-03 02:40:00,
2013-09-02 19:41:00,71.2,29.3,25.01,SE,135,0.0,0.0,21,0.00,,,0.00,meteohub,2013-09-03 02:41:00,
2013-09-02 19:44:00,70.9,28.9,25.01,SE,135,0.0,0.0,21,0.00,,,0.00,meteohub,2013-09-03 02:44:00,
2013-09-02 19:45:00,70.9,28.9,25.01,SE,135,0.0,0.0,21,0.00,,,0.00,meteohub,2013-09-03 02:45:00,
2013-09-02 19:46:00,70.7,28.8,25.02,SE,135,0.0,0.0,21,0.00,,,0.00,meteohub,2013-09-03 02:46:00,
2013-09-02 19:47:00,70.7,30.0,25.02,SE,135,0.0,0.0,22,0.00,,,0.00,meteohub,2013-09-03 02:47:00,
2013-09-02 19:49:00,70.5,29.8,25.02,SE,135,0.0,0.0,22,0.00,,,0.00,meteohub,2013-09-03 02:49:00,
2013-09-02 19:51:00,70.3,29.7,25.02,SE,135,0.0,0.0,22,0.00,,,0.00,meteohub,2013-09-03 02:51:00,
2013-09-02 19:52:00,70.3,29.7,25.02,SE,135,0.0,0.0,22,0.00,,,0.00,meteohub,2013-09-03 02:52:00,
2013-09-02 19:54:00,70.2,29.5,25.02,SSE,158,0.0,0.0,22,0.00,,,0.00,meteohub,2013-09-03 02:54:00,
2013-09-02 19:56:00,70.0,29.3,25.02,SE,135,0.0,0.0,22,0.00,,,0.00,meteohub,2013-09-03 02:56:00,
2013-09-02 19:57:00,70.0,29.3,25.02,SE,135,0.0,0.0,22,0.00,,,0.00,meteohub,2013-09-03 02:57:00,
2013-09-02 20:00:00,69.6,29.1,25.02,SE,135,0.0,0.0,22,0.00,,,0.00,meteohub,2013-09-03 03:00:00,
2013-09-02 20:01:00,69.6,29.1,25.02,SE,135,0.0,0.0,22,0.00,,,0.00,meteohub,2013-09-03 03:01:00,
2013-09-02 20:03:00,69.6,29.1,25.02,SE,135,0.0,0.0,22,0.00,,,0.00,meteohub,2013-09-03 03:03:00,
2013-09-02 20:04:00,69.6,29.1,25.02,SE,135,0.0,0.0,22,0.00,,,0.00,meteohub,2013-09-03 03:04:00,
2013-09-02 20:06:00,69.4,28.9,25.02,SE,135,0.0,0.0,22,0.00,,,0.00,meteohub,2013-09-03 03:06:00,
2013-09-02 20:07:00,69.4,28.9,25.02,SE,135,0.0,0.0,22,0.00,,,0.00,meteohub,2013-09-03 03:07:00,
2013-09-02 20:09:00,69.1,28.6,25.02,SE,135,0.0,0.0,22,0.00,,,0.00,meteohub,2013-09-03 03:09:00,
2013-09-02 20:10:00,69.1,28.6,25.02,SE,135,0.0,0.0,22,0.00,,,0.00,meteohub,2013-09-03 03:10:00,
2013-09-02 20:12:00,69.1,28.6,25.02,SE,135,0.0,0.0,22,0.00,,,0.00,meteohub,2013-09-03 03:12:00,
2013-09-02 20:16:00,68.7,28.4,25.02,SE,135,0.0,0.0,22,0.00,,,0.00,meteohub,2013-09-03 03:16:00,
2013-09-02 20:17:00,68.7,28.4,25.03,SE,135,0.0,0.0,22,0.00,,,0.00,meteohub,2013-09-03 03:17:00,
2013-09-02 20:19:00,68.5,28.2,25.02,SE,135,0.0,0.0,22,0.00,,,0.00,meteohub,2013-09-03 03:19:00,
2013-09-02 20:20:00,68.5,28.2,25.02,SE,135,0.0,0.0,22,0.00,,,0.00,meteohub,2013-09-03 03:20:00,
2013-09-02 20:22:00,68.5,28.2,25.02,SE,135,0.0,0.0,22,0.00,,,0.00,meteohub,2013-09-03 03:22:00,
2013-09-02 20:26:00,68.2,28.9,25.03,SE,135,0.0,0.0,23,0.00,,,0.00,meteohub,2013-09-03 03:26:00,
2013-09-02 20:27:00,68.2,28.9,25.03,SE,135,0.0,0.0,23,0.00,,,0.00,meteohub,2013-09-03 03:27:00,
2013-09-02 20:28:00,68.2,28.9,25.03,SE,135,0.0,0.0,23,0.00,,,0.00,meteohub,2013-09-03 03:28:00,
2013-09-02 20:29:00,68.0,28.8,25.03,SE,135,0.0,0.0,23,0.00,,,0.00,meteohub,2013-09-03 03:29:00,
2013-09-02 20:32:00,67.8,28.6,25.03,SE,135,0.0,0.0,23,0.00,,,0.00,meteohub,2013-09-03 03:32:00,
2013-09-02 20:33:00,67.8,28.6,25.03,SE,135,0.0,0.0,23,0.00,,,0.00,meteohub,2013-09-03 03:33:00,
2013-09-02 20:36:00,67.8,28.6,25.03,SE,135,0.0,0.0,23,0.00,,,0.00,meteohub,2013-09-03 03:36:00,
2013-09-02 20:37:00,67.8,28.6,25.03,SE,135,0.0,0.0,23,0.00,,,0.00,meteohub,2013-09-03 03:37:00,
2013-09-02 20:38:00,67.6,28.6,25.03,SE,135,0.0,0.0,23,0.00,,,0.00,meteohub,2013-09-03 03:38:00,
2013-09-02 20:42:00,67.6,28.6,25.03,SE,135,0.0,0.0,23,0.00,,,0.00,meteohub,2013-09-03 03:42:00,
2013-09-02 20:44:00,67.6,28.6,25.03,SE,135,0.0,0.0,23,0.00,,,0.00,meteohub,2013-09-03 03:44:00,
2013-09-02 20:46:00,67.5,28.4,25.03,SE,135,0.0,0.0,23,0.00,,,0.00,meteohub,2013-09-03 03:46:00,
2013-09-02 20:50:00,67.3,29.3,25.03,SE,135,0.0,0.0,24,0.00,,,0.00,meteohub,2013-09-03 03:50:00,
2013-09-02 20:52:00,67.3,29.3,25.03,SE,135,0.0,0.0,24,0.00,,,0.00,meteohub,2013-09-03 03:52:00,
2013-09-02 20:53:00,67.1,29.1,25.03,SE,135,0.0,0.0,24,0.00,,,0.00,meteohub,2013-09-03 03:53:00,
2013-09-02 20:54:00,67.1,29.1,25.03,SE,135,0.0,0.0,24,0.00,,,0.00,meteohub,2013-09-03 03:54:00,
2013-09-02 20:56:00,66.9,28.9,25.03,SE,135,0.0,0.0,24,0.00,,,0.00,meteohub,2013-09-03 03:56:00,
2013-09-02 20:58:00,66.9,28.9,25.03,SE,135,0.0,0.0,24,0.00,,,0.00,meteohub,2013-09-03 03:58:00,
2013-09-02 20:59:00,66.9,28.9,25.03,SE,135,0.0,0.0,24,0.00,,,0.00,meteohub,2013-09-03 03:59:00,
2013-09-02 21:01:00,66.7,28.8,25.03,SE,135,0.0,0.0,24,0.00,,,0.00,meteohub,2013-09-03 04:01:00,
2013-09-02 21:02:00,66.7,28.8,25.03,SE,135,0.0,0.0,24,0.00,,,0.00,meteohub,2013-09-03 04:02:00,
2013-09-02 21:04:00,66.7,28.8,25.03,SE,135,0.0,0.0,24,0.00,,,0.00,meteohub,2013-09-03 04:04:00,
2013-09-02 21:07:00,66.7,28.8,25.03,SE,135,0.0,0.0,24,0.00,,,0.00,meteohub,2013-09-03 04:07:00,
2013-09-02 21:08:00,66.7,28.8,25.03,SE,135,0.0,0.0,24,0.00,,,0.00,meteohub,2013-09-03 04:08:00,
2013-09-02 21:09:00,66.6,29.7,25.04,SE,135,0.0,0.0,25,0.00,,,0.00,meteohub,2013-09-03 04:09:00,
2013-09-02 21:14:00,66.6,29.7,25.04,SE,135,0.0,0.0,25,0.00,,,0.00,meteohub,2013-09-03 04:14:00,
2013-09-02 21:15:00,66.4,29.5,25.04,SE,135,0.0,0.0,25,0.00,,,0.00,meteohub,2013-09-03 04:15:00,
2013-09-02 21:20:00,66.2,29.3,25.04,SSE,158,0.0,0.0,25,0.00,,,0.00,meteohub,2013-09-03 04:20:00,
2013-09-02 21:22:00,66.2,29.3,25.04,SE,135,0.0,0.0,25,0.00,,,0.00,meteohub,2013-09-03 04:22:00,
2013-09-02 21:24:00,66.0,29.1,25.04,SE,135,0.0,0.0,25,0.00,,,0.00,meteohub,2013-09-03 04:24:00,
2013-09-02 21:25:00,66.0,29.1,25.04,SE,135,0.0,0.0,25,0.00,,,0.00,meteohub,2013-09-03 04:25:00,
2013-09-02 21:27:00,66.0,29.1,25.04,SE,135,0.0,0.0,25,0.00,,,0.00,meteohub,2013-09-03 04:27:00,
2013-09-02 21:29:00,66.0,30.2,25.04,SE,135,0.0,0.0,26,0.00,,,0.00,meteohub,2013-09-03 04:29:00,
2013-09-02 21:30:00,66.0,30.2,25.04,SE,135,0.0,0.0,26,0.00,,,0.00,meteohub,2013-09-03 04:30:00,
2013-09-02 21:32:00,66.0,30.2,25.04,SE,135,0.0,0.0,26,0.00,,,0.00,meteohub,2013-09-03 04:32:00,
2013-09-02 21:36:00,66.0,30.2,25.04,SE,135,0.0,0.0,26,0.00,,,0.00,meteohub,2013-09-03 04:36:00,
2013-09-02 21:37:00,66.0,30.2,25.04,SE,135,0.0,0.0,26,0.00,,,0.00,meteohub,2013-09-03 04:37:00,
2013-09-02 21:39:00,65.8,30.0,25.04,SE,135,0.0,0.0,26,0.00,,,0.00,meteohub,2013-09-03 04:39:00,
2013-09-02 21:40:00,65.8,30.0,25.04,SE,135,0.0,0.0,26,0.00,,,0.00,meteohub,2013-09-03 04:40:00,
2013-09-02 21:42:00,65.8,30.9,25.04,SE,135,0.0,0.0,27,0.00,,,0.00,meteohub,2013-09-03 04:42:00,
2013-09-02 21:43:00,65.8,30.9,25.04,SE,135,0.0,0.0,27,0.00,,,0.00,meteohub,2013-09-03 04:43:00,
2013-09-02 21:44:00,65.7,30.7,25.04,SE,135,0.0,0.0,27,0.00,,,0.00,meteohub,2013-09-03 04:44:00,
2013-09-02 21:45:00,65.7,30.7,25.04,SE,135,0.0,0.0,27,0.00,,,0.00,meteohub,2013-09-03 04:45:00,
2013-09-02 21:50:00,65.5,30.6,25.04,SE,135,0.0,0.0,27,0.00,,,0.00,meteohub,2013-09-03 04:50:00,
2013-09-02 21:52:00,65.3,30.4,25.04,SE,135,0.0,0.0,27,0.00,,,0.00,meteohub,2013-09-03 04:52:00,
2013-09-02 21:53:00,65.3,30.4,25.04,SE,135,0.0,0.0,27,0.00,,,0.00,meteohub,2013-09-03 04:53:00,
2013-09-02 21:55:00,65.1,30.4,25.04,SE,135,0.0,0.0,27,0.00,,,0.00,meteohub,2013-09-03 04:55:00,
2013-09-02 21:57:00,65.1,30.4,25.05,SE,135,0.0,0.0,27,0.00,,,0.00,meteohub,2013-09-03 04:57:00,
2013-09-02 21:59:00,65.1,30.4,25.05,SE,135,0.0,0.0,27,0.00,,,0.00,meteohub,2013-09-03 04:59:00,
2013-09-02 22:00:00,64.9,30.2,25.05,SE,135,0.0,0.0,27,0.00,,,0.00,meteohub,2013-09-03 05:00:00,
2013-09-02 22:02:00,64.9,31.1,25.05,SE,135,0.0,0.0,28,0.00,,,0.00,meteohub,2013-09-03 05:02:00,
2013-09-02 22:04:00,64.8,30.9,25.05,SE,135,0.0,0.0,28,0.00,,,0.00,meteohub,2013-09-03 05:04:00,
2013-09-02 22:05:00,64.8,30.9,25.05,SE,135,0.0,0.0,28,0.00,,,0.00,meteohub,2013-09-03 05:05:00,
2013-09-02 22:06:00,64.8,30.9,25.05,SE,135,0.0,0.0,28,0.00,,,0.00,meteohub,2013-09-03 05:06:00,
2013-09-02 22:07:00,64.8,30.9,25.05,SE,135,0.0,0.0,28,0.00,,,0.00,meteohub,2013-09-03 05:07:00,
2013-09-02 22:11:00,64.6,31.6,25.05,SE,135,0.0,0.0,29,0.00,,,0.00,meteohub,2013-09-03 05:11:00,
2013-09-02 22:12:00,64.6,31.6,25.05,SE,135,0.0,0.0,29,0.00,,,0.00,meteohub,2013-09-03 05:12:00,
2013-09-02 22:13:00,64.4,31.5,25.06,SE,135,0.0,0.0,29,0.00,,,0.00,meteohub,2013-09-03 05:13:00,
2013-09-02 22:16:00,64.2,31.3,25.06,SE,135,0.0,0.0,29,0.00,,,0.00,meteohub,2013-09-03 05:16:00,
2013-09-02 22:18:00,64.2,32.2,25.06,SE,135,0.0,0.0,30,0.00,,,0.00,meteohub,2013-09-03 05:18:00,
2013-09-02 22:21:00,64.0,32.7,25.06,SE,135,0.0,0.0,31,0.00,,,0.00,meteohub,2013-09-03 05:21:00,
2013-09-02 22:22:00,64.0,32.7,25.06,SE,135,0.0,0.0,31,0.00,,,0.00,meteohub,2013-09-03 05:22:00,
2013-09-02 22:23:00,64.0,32.7,25.05,SE,135,0.0,0.0,31,0.00,,,0.00,meteohub,2013-09-03 05:23:00,
2013-09-02 22:24:00,64.0,32.7,25.05,SE,135,0.0,0.0,31,0.00,,,0.00,meteohub,2013-09-03 05:24:00,
2013-09-02 22:27:00,64.0,33.6,25.05,SE,135,0.0,0.0,32,0.00,,,0.00,meteohub,2013-09-03 05:27:00,
2013-09-02 22:29:00,63.9,33.4,25.05,SE,135,0.0,0.0,32,0.00,,,0.00,meteohub,2013-09-03 05:29:00,
2013-09-02 22:33:00,63.7,34.0,25.05,SE,135,0.0,0.0,33,0.00,,,0.00,meteohub,2013-09-03 05:33:00,
2013-09-02 22:34:00,63.7,34.0,25.05,SE,135,0.0,0.0,33,0.00,,,0.00,meteohub,2013-09-03 05:34:00,
2013-09-02 22:35:00,63.7,34.0,25.05,SE,135,0.0,0.0,33,0.00,,,0.00,meteohub,2013-09-03 05:35:00,
2013-09-02 22:36:00,63.7,34.0,25.05,SE,135,0.0,0.0,33,0.00,,,0.00,meteohub,2013-09-03 05:36:00,
2013-09-02 22:38:00,63.7,34.0,25.05,SE,135,0.0,0.0,33,0.00,,,0.00,meteohub,2013-09-03 05:38:00,
2013-09-02 22:39:00,63.7,34.0,25.05,SE,135,0.0,0.0,33,0.00,,,0.00,meteohub,2013-09-03 05:39:00,
2013-09-02 22:42:00,63.7,34.0,25.06,SE,135,0.0,0.0,33,0.00,,,0.00,meteohub,2013-09-03 05:42:00,
2013-09-02 22:44:00,63.5,33.8,25.06,SE,135,0.0,0.0,33,0.00,,,0.00,meteohub,2013-09-03 05:44:00,
2013-09-02 22:45:00,63.5,33.8,25.06,SE,135,0.0,0.0,33,0.00,,,0.00,meteohub,2013-09-03 05:45:00,
2013-09-02 22:47:00,63.5,33.8,25.06,SE,135,0.0,0.0,33,0.00,,,0.00,meteohub,2013-09-03 05:47:00,
2013-09-02 22:51:00,63.3,33.8,25.06,SE,135,0.0,0.0,33,0.00,,,0.00,meteohub,2013-09-03 05:51:00,
2013-09-02 22:52:00,63.3,33.8,25.06,SE,135,0.0,0.0,33,0.00,,,0.00,meteohub,2013-09-03 05:52:00,
2013-09-02 22:53:00,63.1,34.3,25.06,SE,135,0.0,0.0,34,0.00,,,0.00,meteohub,2013-09-03 05:53:00,
2013-09-02 22:54:00,63.1,34.3,25.06,SE,135,0.0,0.0,34,0.00,,,0.00,meteohub,2013-09-03 05:54:00,
2013-09-02 22:55:00,63.1,34.3,25.06,SE,135,0.0,0.0,34,0.00,,,0.00,meteohub,2013-09-03 05:55:00,
2013-09-02 22:56:00,63.1,34.3,25.06,SE,135,0.0,0.0,34,0.00,,,0.00,meteohub,2013-09-03 05:56:00,
2013-09-02 22:57:00,63.1,34.3,25.06,SE,135,0.0,0.0,34,0.00,,,0.00,meteohub,2013-09-03 05:57:00,
2013-09-02 22:59:00,63.0,34.2,25.06,SE,135,0.0,0.0,34,0.00,,,0.00,meteohub,2013-09-03 05:59:00,
2013-09-02 23:00:00,63.0,34.2,25.06,SE,135,0.0,0.0,34,0.00,,,0.00,meteohub,2013-09-03 06:00:00,
2013-09-02 23:02:00,63.0,34.2,25.06,SE,135,0.0,0.0,34,0.00,,,0.00,meteohub,2013-09-03 06:02:00,
2013-09-02 23:04:00,62.8,34.0,25.06,SE,135,0.0,0.0,34,0.00,,,0.00,meteohub,2013-09-03 06:04:00,
2013-09-02 23:07:00,62.8,34.0,25.06,SE,135,0.0,0.0,34,0.00,,,0.00,meteohub,2013-09-03 06:07:00,
2013-09-02 23:08:00,62.8,34.0,25.06,SE,135,0.0,0.0,34,0.00,,,0.00,meteohub,2013-09-03 06:08:00,
2013-09-02 23:09:00,62.6,33.8,25.06,SE,135,0.0,0.0,34,0.00,,,0.00,meteohub,2013-09-03 06:09:00,
2013-09-02 23:12:00,62.4,34.3,25.06,SE,135,0.0,0.0,35,0.00,,,0.00,meteohub,2013-09-03 06:12:00,
2013-09-02 23:13:00,62.4,34.3,25.06,SE,135,0.0,0.0,35,0.00,,,0.00,meteohub,2013-09-03 06:13:00,
2013-09-02 23:14:00,62.4,34.3,25.06,SE,135,0.0,0.0,35,0.00,,,0.00,meteohub,2013-09-03 06:14:00,
2013-09-02 23:15:00,62.4,34.3,25.06,SE,135,0.0,0.0,35,0.00,,,0.00,meteohub,2013-09-03 06:15:00,
2013-09-02 23:17:00,62.4,34.3,25.07,SE,135,0.0,0.0,35,0.00,,,0.00,meteohub,2013-09-03 06:17:00,
2013-09-02 23:20:00,62.2,34.2,25.06,SE,135,0.0,0.0,35,0.00,,,0.00,meteohub,2013-09-03 06:20:00,
2013-09-02 23:22:00,62.2,34.2,25.06,SE,135,0.0,0.0,35,0.00,,,0.00,meteohub,2013-09-03 06:22:00,
2013-09-02 23:25:00,61.9,34.0,25.06,SE,135,0.0,0.0,35,0.00,,,0.00,meteohub,2013-09-03 06:25:00,
2013-09-02 23:27:00,61.9,34.0,25.06,SE,135,0.0,0.0,35,0.00,,,0.00,meteohub,2013-09-03 06:27:00,
2013-09-02 23:30:00,61.7,33.8,25.06,SE,135,0.0,0.0,35,0.00,,,0.00,meteohub,2013-09-03 06:30:00,
2013-09-02 23:32:00,61.5,33.6,25.06,SE,135,0.0,0.0,35,0.00,,,0.00,meteohub,2013-09-03 06:32:00,
2013-09-02 23:33:00,61.5,33.6,25.06,SE,135,0.0,0.0,35,0.00,,,0.00,meteohub,2013-09-03 06:33:00,
2013-09-02 23:37:00,61.2,33.3,25.07,SE,135,0.0,0.0,35,0.00,,,0.00,meteohub,2013-09-03 06:37:00,
2013-09-02 23:39:00,61.0,33.8,25.07,SE,135,0.0,0.0,36,0.00,,,0.00,meteohub,2013-09-03 06:39:00,
2013-09-02 23:40:00,61.0,33.8,25.07,SE,135,0.0,0.0,36,0.00,,,0.00,meteohub,2013-09-03 06:40:00,
2013-09-02 23:42:00,61.0,33.8,25.06,SE,135,0.0,0.0,36,0.00,,,0.00,meteohub,2013-09-03 06:42:00,
2013-09-02 23:45:00,60.6,33.4,25.06,SE,135,0.0,0.0,36,0.00,,,0.00,meteohub,2013-09-03 06:45:00,
2013-09-02 23:47:00,60.6,33.4,25.06,SE,135,0.0,0.0,36,0.00,,,0.00,meteohub,2013-09-03 06:47:00,
2013-09-02 23:48:00,60.4,33.4,25.06,SE,135,0.0,0.0,36,0.00,,,0.00,meteohub,2013-09-03 06:48:00,
2013-09-02 23:50:00,60.4,33.4,25.06,SE,135,0.0,0.0,36,0.00,,,0.00,meteohub,2013-09-03 06:50:00,
2013-09-02 23:52:00,60.1,33.1,25.06,SE,135,0.0,0.0,36,0.00,,,0.00,meteohub,2013-09-03 06:52:00,
2013-09-02 23:53:00,59.9,32.9,25.06,SE,135,0.0,0.0,36,0.00,,,0.00,meteohub,2013-09-03 06:53:00,
2013-09-02 23:57:00,59.4,32.4,25.06,SE,135,0.0,0.0,36,0.00,,,0.00,meteohub,2013-09-03 06:57:00,
2013-09-02 23:58:00,59.2,32.2,25.06,SE,135,0.0,0.0,36,0.00,,,0.00,meteohub,2013-09-03 06:58:00,
2013-09-02 23:59:00,59.0,32.0,25.06,SE,135,0.0,0.0,36,0.00,,,0.00,meteohub,2013-09-03 06:59:00,